Wetterdaten: Donnerstag, 29.11.2018
Datum Zeit Temp. Aussen Temp. o. S. +5cm Feuchte Auss Luftdruck Regen Sonnenschein Regendauer Solar Windben Empfang
29.11.2018 00:00 6,6 C 6,1 C 5,6 C 94 % 1014,8 hPa 0,0 l/m 0 min 0 min 0 W/m 25,7 km/h (4 Bft) 93,62 %
29.11.2018 00:02 6,6 C 6,1 C 5,6 C 94 % 1014,8 hPa 0,0 l/m 0 min 0 min 0 W/m 38,6 km/h (5 Bft) 90,24 %
29.11.2018 00:04 6,6 C 6,1 C 5,6 C 94 % 1014,7 hPa 0,0 l/m 0 min 0 min 0 W/m 29,0 km/h (5 Bft) 97,87 %
29.11.2018 00:08 6,6 C 6,1 C 5,6 C 93 % 1014,7 hPa 0,0 l/m 0 min 0 min 0 W/m 32,2 km/h (5 Bft) 97,85 %
29.11.2018 00:10 6,6 C 6,1 C 5,6 C 93 % 1014,6 hPa 0,0 l/m 0 min 0 min 0 W/m 38,6 km/h (5 Bft) 97,87 %
29.11.2018 00:12 6,6 C 6,1 C 5,6 C 93 % 1014,5 hPa 0,0 l/m 0 min 0 min 0 W/m 41,8 km/h (6 Bft) 95,74 %
29.11.2018 00:14 6,6 C 6,1 C 5,6 C 93 % 1014,4 hPa 0,0 l/m 0 min 0 min 0 W/m 35,4 km/h (5 Bft) 95,74 %
29.11.2018 00:16 6,6 C 6,1 C 5,6 C 93 % 1014,4 hPa 0,0 l/m 0 min 0 min 0 W/m 32,2 km/h (5 Bft) 100,00 %
29.11.2018 00:18 6,6 C 6,1 C 5,6 C 93 % 1014,3 hPa 0,0 l/m 0 min 0 min 0 W/m 32,2 km/h (5 Bft) 100,00 %
29.11.2018 00:20 6,7 C 6,1 C 5,6 C 93 % 1014,4 hPa 0,0 l/m 0 min 0 min 0 W/m 32,2 km/h (5 Bft) 100,00 %
29.11.2018 00:22 6,7 C 6,1 C 5,6 C 93 % 1014,5 hPa 0,0 l/m 0 min 0 min 0 W/m 32,2 km/h (5 Bft) 100,00 %
29.11.2018 00:24 6,7 C 6,1 C 5,6 C 93 % 1014,7 hPa 0,0 l/m 0 min 0 min 0 W/m 25,7 km/h (4 Bft) 100,00 %
29.11.2018 00:26 6,7 C 6,1 C 5,6 C 93 % 1014,8 hPa 0,0 l/m 0 min 0 min 0 W/m 32,2 km/h (5 Bft) 100,00 %
29.11.2018 00:28 6,7 C 6,1 C 5,6 C 93 % 1014,8 hPa 0,0 l/m 0 min 0 min 0 W/m 32,2 km/h (5 Bft) 100,00 %
29.11.2018 00:30 6,7 C 6,7 C 5,6 C 93 % 1014,8 hPa 0,0 l/m 0 min 0 min 0 W/m 32,2 km/h (5 Bft) 100,00 %
29.11.2018 00:32 6,7 C 6,7 C 5,6 C 93 % 1014,8 hPa 0,0 l/m 0 min 0 min 0 W/m 32,2 km/h (5 Bft) 95,74 %
29.11.2018 00:34 6,8 C 6,7 C 5,6 C 93 % 1014,6 hPa 0,0 l/m 0 min 0 min 0 W/m 25,7 km/h (4 Bft) 100,00 %
29.11.2018 00:36 6,8 C 6,7 C 5,6 C 93 % 1014,6 hPa 0,0 l/m 0 min 0 min 0 W/m 29,0 km/h (5 Bft) 95,74 %
29.11.2018 00:38 6,8 C 6,7 C 5,6 C 93 % 1014,6 hPa 0,0 l/m 0 min 0 min 0 W/m 38,6 km/h (5 Bft) 100,00 %
29.11.2018 00:40 6,8 C 6,7 C 5,6 C 93 % 1014,6 hPa 0,0 l/m 0 min 0 min 0 W/m 35,4 km/h (5 Bft) 100,00 %
29.11.2018 00:42 6,8 C 6,7 C 5,6 C 93 % 1014,5 hPa 0,0 l/m 0 min 0 min 0 W/m 32,2 km/h (5 Bft) 100,00 %
29.11.2018 00:44 6,9 C 6,7 C 5,6 C 93 % 1014,5 hPa 0,0 l/m 0 min 0 min 0 W/m 25,7 km/h (4 Bft) 100,00 %
29.11.2018 00:46 6,9 C 6,7 C 5,6 C 93 % 1014,5 hPa 0,0 l/m 0 min 0 min 0 W/m 29,0 km/h (5 Bft) 100,00 %
29.11.2018 00:48 6,9 C 6,7 C 5,6 C 93 % 1014,5 hPa 0,0 l/m 0 min 0 min 0 W/m 38,6 km/h (5 Bft) 100,00 %
29.11.2018 00:50 6,9 C 6,7 C 5,6 C 93 % 1014,6 hPa 0,0 l/m 0 min 0 min 0 W/m 32,2 km/h (5 Bft) 100,00 %
29.11.2018 00:52 6,9 C 6,7 C 6,1 C 93 % 1014,6 hPa 0,0 l/m 0 min 0 min 0 W/m 32,2 km/h (5 Bft) 97,87 %
29.11.2018 00:54 6,9 C 6,7 C 6,1 C 93 % 1014,6 hPa 0,0 l/m 0 min 0 min 0 W/m 29,0 km/h (5 Bft) 97,83 %
29.11.2018 00:56 6,9 C 6,7 C 6,1 C 93 % 1014,6 hPa 0,0 l/m 0 min 0 min 0 W/m 32,2 km/h (5 Bft) 97,87 %
29.11.2018 00:58 7,0 C 6,7 C 6,1 C 93 % 1014,6 hPa 0,0 l/m 0 min 0 min 0 W/m 32,2 km/h (5 Bft) 97,87 %
29.11.2018 01:00 7,0 C 6,7 C 5,6 C 93 % 1014,5 hPa 0,0 l/m 0 min 0 min 0 W/m 25,7 km/h (4 Bft) 95,74 %
29.11.2018 01:02 7,1 C 6,7 C 5,6 C 93 % 1014,5 hPa 0,0 l/m 0 min 0 min 0 W/m 25,7 km/h (4 Bft) 97,87 %
29.11.2018 01:04 7,0 C 6,7 C 6,1 C 93 % 1014,4 hPa 0,0 l/m 0 min 0 min 0 W/m 32,2 km/h (5 Bft) 95,74 %
29.11.2018 01:06 7,1 C 6,7 C 6,1 C 93 % 1014,4 hPa 0,0 l/m 0 min 0 min 0 W/m 41,8 km/h (6 Bft) 97,83 %
29.11.2018 01:08 7,1 C 6,7 C 6,1 C 93 % 1014,5 hPa 0,0 l/m 0 min 0 min 0 W/m 32,2 km/h (5 Bft) 97,87 %
29.11.2018 01:10 7,1 C 6,7 C 6,1 C 93 % 1014,4 hPa 0,0 l/m 0 min 0 min 0 W/m 35,4 km/h (5 Bft) 97,87 %
29.11.2018 01:12 7,1 C 6,7 C 6,1 C 93 % 1014,4 hPa 0,0 l/m 0 min 0 min 0 W/m 32,2 km/h (5 Bft) 95,74 %
29.11.2018 01:14 7,1 C 6,7 C 6,1 C 93 % 1014,3 hPa 0,0 l/m 0 min 0 min 0 W/m 25,7 km/h (4 Bft) 95,74 %
29.11.2018 01:16 7,1 C 6,7 C 6,1 C 93 % 1014,3 hPa 0,0 l/m 0 min 0 min 0 W/m 22,5 km/h (4 Bft) 95,65 %
29.11.2018 01:18 7,1 C 6,7 C 6,1 C 93 % 1014,3 hPa 0,0 l/m 0 min 0 min 0 W/m 32,2 km/h (5 Bft) 95,74 %
29.11.2018 01:20 7,1 C 6,7 C 6,1 C 93 % 1014,3 hPa 0,0 l/m 0 min 0 min 0 W/m 22,5 km/h (4 Bft) 97,87 %
29.11.2018 01:22 7,1 C 6,7 C 6,1 C 93 % 1014,3 hPa 0,0 l/m 0 min 0 min 0 W/m 25,7 km/h (4 Bft) 97,87 %
29.11.2018 01:24 7,1 C 6,7 C 6,1 C 93 % 1014,4 hPa 0,0 l/m 0 min 0 min 0 W/m 19,3 km/h (3 Bft) 97,87 %
29.11.2018 01:26 7,1 C 6,7 C 6,1 C 93 % 1014,4 hPa 0,0 l/m 0 min 0 min 0 W/m 25,7 km/h (4 Bft) 97,87 %
29.11.2018 01:28 7,1 C 6,7 C 6,1 C 93 % 1014,3 hPa 0,0 l/m 0 min 0 min 0 W/m 29,0 km/h (5 Bft) 95,65 %
29.11.2018 01:30 7,1 C 6,7 C 6,1 C 93 % 1014,3 hPa 0,0 l/m 0 min 0 min 0 W/m 25,7 km/h (4 Bft) 95,74 %
29.11.2018 01:32 7,1 C 6,7 C 6,1 C 93 % 1014,2 hPa 0,0 l/m 0 min 0 min 0 W/m 38,6 km/h (5 Bft) 93,62 %
29.11.2018 01:34 7,2 C 6,7 C 6,1 C 93 % 1014,2 hPa 0,0 l/m 0 min 0 min 0 W/m 22,5 km/h (4 Bft) 95,74 %
29.11.2018 01:36 7,1 C 6,7 C 6,1 C 93 % 1014,2 hPa 0,0 l/m 0 min 0 min 0 W/m 32,2 km/h (5 Bft) 95,74 %
29.11.2018 01:38 7,2 C 6,7 C 6,1 C 93 % 1014,1 hPa 0,0 l/m 0 min 0 min 0 W/m 29,0 km/h (5 Bft) 95,74 %
29.11.2018 01:40 7,2 C 6,7 C 6,1 C 93 % 1014,1 hPa 0,0 l/m 0 min 0 min 0 W/m 32,2 km/h (5 Bft) 97,87 %
29.11.2018 01:42 7,2 C 6,7 C 6,1 C 93 % 1014,1 hPa 0,0 l/m 0 min 0 min 0 W/m 29,0 km/h (5 Bft) 95,65 %
29.11.2018 01:44 7,2 C 6,7 C 6,1 C 93 % 1014,1 hPa 0,0 l/m 0 min 0 min 0 W/m 32,2 km/h (5 Bft) 95,74 %
29.11.2018 01:46 7,2 C 6,7 C 6,1 C 93 % 1014,2 hPa 0,0 l/m 0 min 0 min 0 W/m 29,0 km/h (5 Bft) 97,87 %
29.11.2018 01:48 7,2 C 6,7 C 6,1 C 93 % 1014,1 hPa 0,0 l/m 0 min 0 min 0 W/m 35,4 km/h (5 Bft) 97,87 %
29.11.2018 01:50 7,2 C 6,7 C 6,1 C 93 % 1014,2 hPa 0,0 l/m 0 min 0 min 0 W/m 35,4 km/h (5 Bft) 95,74 %
29.11.2018 01:52 7,2 C 6,7 C 6,1 C 93 % 1014,2 hPa 0,0 l/m 0 min 0 min 0 W/m 32,2 km/h (5 Bft) 97,83 %
29.11.2018 01:54 7,2 C 6,7 C 6,1 C 93 % 1014,3 hPa 0,0 l/m 0 min 0 min 0 W/m 32,2 km/h (5 Bft) 97,87 %
29.11.2018 01:56 7,2 C 6,7 C 6,1 C 93 % 1014,3 hPa 0,0 l/m 0 min 0 min 0 W/m 38,6 km/h (5 Bft) 97,87 %
29.11.2018 01:58 7,2 C 6,7 C 6,1 C 93 % 1014,3 hPa 0,0 l/m 0 min 0 min 0 W/m 29,0 km/h (5 Bft) 97,87 %
29.11.2018 02:00 7,2 C 6,7 C 6,1 C 93 % 1014,2 hPa 0,0 l/m 0 min 0 min 0 W/m 22,5 km/h (4 Bft) 97,87 %
29.11.2018 02:02 7,2 C 6,7 C 6,1 C 93 % 1014,2 hPa 0,0 l/m 0 min 0 min 0 W/m 35,4 km/h (5 Bft) 97,87 %
29.11.2018 02:04 7,2 C 6,7 C 6,1 C 93 % 1014,3 hPa 0,0 l/m 0 min 0 min 0 W/m 29,0 km/h (5 Bft) 91,30 %
29.11.2018 02:06 7,3 C 6,7 C 6,1 C 93 % 1014,2 hPa 0,0 l/m 0 min 0 min 0 W/m 25,7 km/h (4 Bft) 93,62 %
29.11.2018 02:08 7,3 C 6,7 C 6,1 C 93 % 1014,3 hPa 0,0 l/m 0 min 0 min 0 W/m 32,2 km/h (5 Bft) 95,74 %
29.11.2018 02:10 7,3 C 7,2 C 6,1 C 93 % 1014,3 hPa 0,0 l/m 0 min 0 min 0 W/m 29,0 km/h (5 Bft) 93,62 %
29.11.2018 02:12 7,3 C 7,2 C 6,1 C 93 % 1014,3 hPa 0,0 l/m 0 min 0 min 0 W/m 22,5 km/h (4 Bft) 95,74 %
29.11.2018 02:14 7,3 C 7,2 C 6,1 C 93 % 1014,3 hPa 0,0 l/m 0 min 0 min 0 W/m 19,3 km/h (3 Bft) 95,74 %
29.11.2018 02:16 7,3 C 7,2 C 6,1 C 93 % 1014,3 hPa 0,0 l/m 0 min 0 min 0 W/m 19,3 km/h (3 Bft) 95,65 %
29.11.2018 02:18 7,3 C 7,2 C 6,1 C 93 % 1014,3 hPa 0,0 l/m 0 min 0 min 0 W/m 29,0 km/h (5 Bft) 97,87 %
29.11.2018 02:20 7,3 C 7,2 C 6,1 C 93 % 1014,3 hPa 0,0 l/m 0 min 0 min 0 W/m 22,5 km/h (4 Bft) 97,87 %
29.11.2018 02:22 7,4 C 6,7 C 6,1 C 93 % 1014,3 hPa 0,0 l/m 0 min 2 min 0 W/m 25,7 km/h (4 Bft) 97,87 %
29.11.2018 02:24 7,4 C 6,7 C 6,1 C 93 % 1014,3 hPa 0,0 l/m 0 min 0 min 0 W/m 29,0 km/h (5 Bft) 97,87 %
29.11.2018 02:26 7,4 C 6,7 C 6,1 C 93 % 1014,3 hPa 0,0 l/m 0 min 0 min 0 W/m 29,0 km/h (5 Bft) 100,00 %
29.11.2018 02:28 7,4 C 6,7 C 6,1 C 93 % 1014,3 hPa 0,0 l/m 0 min 0 min 0 W/m 25,7 km/h (4 Bft) 95,65 %
29.11.2018 02:30 7,4 C 7,2 C 6,1 C 93 % 1014,3 hPa 0,0 l/m 0 min 0 min 0 W/m 22,5 km/h (4 Bft) 97,87 %
29.11.2018 02:32 7,4 C 7,2 C 6,1 C 93 % 1014,3 hPa 0,0 l/m 0 min 0 min 0 W/m 29,0 km/h (5 Bft) 97,87 %
29.11.2018 02:34 7,4 C 7,2 C 6,1 C 93 % 1014,3 hPa 0,0 l/m 0 min 0 min 0 W/m 29,0 km/h (5 Bft) 97,87 %
29.11.2018 02:36 7,4 C 7,2 C 6,1 C 93 % 1014,3 hPa 0,0 l/m 0 min 0 min 0 W/m 35,4 km/h (5 Bft) 97,87 %
29.11.2018 02:38 7,4 C 7,2 C 6,1 C 93 % 1014,3 hPa 0,0 l/m 0 min 0 min 0 W/m 32,2 km/h (5 Bft) 93,62 %
29.11.2018 02:40 7,4 C 7,2 C 6,1 C 93 % 1014,3 hPa 0,0 l/m 0 min 0 min 0 W/m 22,5 km/h (4 Bft) 93,62 %
29.11.2018 02:42 7,5 C 7,2 C 6,1 C 92 % 1014,3 hPa 0,0 l/m 0 min 0 min 0 W/m 25,7 km/h (4 Bft) 97,87 %
29.11.2018 02:44 7,5 C 7,2 C 6,1 C 92 % 1014,2 hPa 0,0 l/m 0 min 0 min 0 W/m 25,7 km/h (4 Bft) 97,87 %
29.11.2018 02:46 7,5 C 7,2 C 6,1 C 92 % 1014,3 hPa 0,0 l/m 0 min 0 min 0 W/m 29,0 km/h (5 Bft) 97,87 %
29.11.2018 02:48 7,5 C 7,2 C 6,1 C 92 % 1014,3 hPa 0,0 l/m 0 min 0 min 0 W/m 29,0 km/h (5 Bft) 97,87 %
29.11.2018 02:50 7,5 C 7,2 C 6,1 C 92 % 1014,2 hPa 0,0 l/m 0 min 0 min 0 W/m 29,0 km/h (5 Bft) 97,83 %
29.11.2018 02:52 7,5 C 7,2 C 6,7 C 92 % 1014,3 hPa 0,0 l/m 0 min 0 min 0 W/m 32,2 km/h (5 Bft) 97,87 %
29.11.2018 02:54 7,5 C 7,2 C 6,7 C 92 % 1014,3 hPa 0,0 l/m 0 min 0 min 0 W/m 29,0 km/h (5 Bft) 97,87 %
29.11.2018 02:56 7,5 C 7,2 C 6,7 C 92 % 1014,3 hPa 0,0 l/m 0 min 0 min 0 W/m 38,6 km/h (5 Bft) 95,74 %
29.11.2018 02:58 7,5 C 7,2 C 6,7 C 92 % 1014,3 hPa 0,0 l/m 0 min 0 min 0 W/m 35,4 km/h (5 Bft) 97,87 %
29.11.2018 03:00 7,5 C 7,2 C 6,7 C 92 % 1014,3 hPa 0,0 l/m 0 min 0 min 0 W/m 35,4 km/h (5 Bft) 97,87 %
29.11.2018 03:02 7,5 C 7,2 C 6,7 C 92 % 1014,3 hPa 0,0 l/m 0 min 0 min 0 W/m 29,0 km/h (5 Bft) 97,83 %
29.11.2018 03:04 7,5 C 7,2 C 6,7 C 92 % 1014,3 hPa 0,0 l/m 0 min 0 min 0 W/m 38,6 km/h (5 Bft) 95,74 %
29.11.2018 03:06 7,6 C 7,2 C 6,7 C 92 % 1014,3 hPa 0,0 l/m 0 min 0 min 0 W/m 29,0 km/h (5 Bft) 97,87 %
29.11.2018 03:08 7,5 C 7,2 C 6,7 C 92 % 1014,2 hPa 0,0 l/m 0 min 0 min 0 W/m 35,4 km/h (5 Bft) 97,87 %
29.11.2018 03:10 7,6 C 7,2 C 6,7 C 92 % 1014,2 hPa 0,0 l/m 0 min 0 min 0 W/m 29,0 km/h (5 Bft) 97,87 %
29.11.2018 03:12 7,6 C 7,2 C 6,7 C 92 % 1014,3 hPa 0,0 l/m 0 min 0 min 0 W/m 25,7 km/h (4 Bft) 93,62 %
29.11.2018 03:14 7,5 C 7,2 C 6,7 C 92 % 1014,2 hPa 0,0 l/m 0 min 0 min 0 W/m 22,5 km/h (4 Bft) 93,48 %
29.11.2018 03:16 7,5 C 7,2 C 6,7 C 92 % 1014,2 hPa 0,0 l/m 0 min 0 min 0 W/m 25,7 km/h (4 Bft) 97,87 %
29.11.2018 03:18 7,6 C 7,2 C 6,7 C 92 % 1014,2 hPa 0,0 l/m 0 min 0 min 0 W/m 29,0 km/h (5 Bft) 95,74 %
29.11.2018 03:20 7,6 C 7,2 C 6,7 C 92 % 1014,2 hPa 0,0 l/m 0 min 0 min 0 W/m 35,4 km/h (5 Bft) 95,74 %
29.11.2018 03:22 7,5 C 7,2 C 6,7 C 92 % 1014,2 hPa 0,0 l/m 0 min 0 min 0 W/m 25,7 km/h (4 Bft) 95,74 %
29.11.2018 03:24 7,5 C 7,2 C 6,7 C 92 % 1014,1 hPa 0,0 l/m 0 min 0 min 0 W/m 25,7 km/h (4 Bft) 97,87 %
29.11.2018 03:26 7,5 C 7,2 C 6,7 C 92 % 1014,2 hPa 0,0 l/m 0 min 0 min 0 W/m 25,7 km/h (4 Bft) 95,65 %
29.11.2018 03:28 7,5 C 7,2 C 6,1 C 92 % 1014,1 hPa 0,0 l/m 0 min 0 min 0 W/m 32,2 km/h (5 Bft) 97,87 %
29.11.2018 03:30 7,5 C 7,2 C 6,1 C 92 % 1014,1 hPa 0,0 l/m 0 min 0 min 0 W/m 25,7 km/h (4 Bft) 97,87 %
29.11.2018 03:32 7,5 C 7,2 C 6,1 C 92 % 1014,1 hPa 0,0 l/m 0 min 0 min 0 W/m 16,1 km/h (3 Bft) 97,87 %
29.11.2018 03:34 7,5 C 6,7 C 6,1 C 92 % 1014,0 hPa 0,0 l/m 0 min 0 min 0 W/m 25,7 km/h (4 Bft) 97,87 %
29.11.2018 03:36 7,5 C 7,2 C 6,1 C 92 % 1014,1 hPa 0,0 l/m 0 min 0 min 0 W/m 29,0 km/h (5 Bft) 95,65 %
29.11.2018 03:38 7,5 C 6,7 C 6,1 C 92 % 1014,0 hPa 0,0 l/m 0 min 0 min 0 W/m 29,0 km/h (5 Bft) 97,87 %
29.11.2018 03:40 7,4 C 6,7 C 6,1 C 92 % 1013,9 hPa 0,0 l/m 0 min 0 min 0 W/m 25,7 km/h (4 Bft) 97,87 %
29.11.2018 03:42 7,5 C 6,7 C 6,1 C 92 % 1013,9 hPa 0,0 l/m 0 min 0 min 0 W/m 32,2 km/h (5 Bft) 97,87 %
29.11.2018 03:44 7,4 C 6,7 C 6,1 C 92 % 1013,7 hPa 0,0 l/m 0 min 0 min 0 W/m 35,4 km/h (5 Bft) 97,87 %
29.11.2018 03:46 7,4 C 7,2 C 6,1 C 92 % 1013,9 hPa 0,0 l/m 0 min 0 min 0 W/m 35,4 km/h (5 Bft) 97,87 %
29.11.2018 03:48 7,4 C 6,7 C 6,1 C 92 % 1013,9 hPa 0,0 l/m 0 min 0 min 0 W/m 29,0 km/h (5 Bft) 95,65 %
29.11.2018 03:50 7,4 C 6,7 C 6,1 C 92 % 1013,9 hPa 0,0 l/m 0 min 0 min 0 W/m 22,5 km/h (4 Bft) 95,74 %
29.11.2018 03:52 7,4 C 6,7 C 6,1 C 92 % 1013,8 hPa 0,0 l/m 0 min 0 min 0 W/m 25,7 km/h (4 Bft) 95,74 %
29.11.2018 03:54 7,4 C 6,7 C 6,1 C 92 % 1013,9 hPa 0,0 l/m 0 min 0 min 0 W/m 32,2 km/h (5 Bft) 95,74 %
29.11.2018 03:56 7,4 C 6,7 C 6,1 C 92 % 1013,8 hPa 0,0 l/m 0 min 0 min 0 W/m 25,7 km/h (4 Bft) 95,74 %
29.11.2018 03:58 7,4 C 6,7 C 6,1 C 92 % 1013,8 hPa 0,0 l/m 0 min 0 min 0 W/m 29,0 km/h (5 Bft) 97,87 %
29.11.2018 04:00 7,4 C 6,7 C 6,1 C 92 % 1013,8 hPa 0,0 l/m 0 min 0 min 0 W/m 25,7 km/h (4 Bft) 95,65 %
29.11.2018 04:02 7,4 C 6,7 C 6,1 C 92 % 1013,9 hPa 0,0 l/m 0 min 0 min 0 W/m 29,0 km/h (5 Bft) 100,00 %
29.11.2018 04:04 7,4 C 6,7 C 6,1 C 92 % 1013,8 hPa 0,0 l/m 0 min 0 min 0 W/m 29,0 km/h (5 Bft) 97,87 %
29.11.2018 04:06 7,4 C 6,7 C 6,1 C 92 % 1013,7 hPa 0,0 l/m 0 min 0 min 0 W/m 22,5 km/h (4 Bft) 100,00 %
29.11.2018 04:08 7,4 C 7,2 C 6,1 C 92 % 1013,7 hPa 0,0 l/m 0 min 0 min 0 W/m 25,7 km/h (4 Bft) 97,87 %
29.11.2018 04:10 7,4 C 6,7 C 6,1 C 92 % 1013,7 hPa 0,0 l/m 0 min 0 min 0 W/m 22,5 km/h (4 Bft) 100,00 %
29.11.2018 04:12 7,4 C 6,7 C 6,1 C 92 % 1013,7 hPa 0,0 l/m 0 min 0 min 0 W/m 22,5 km/h (4 Bft) 100,00 %
29.11.2018 04:14 7,4 C 6,7 C 6,1 C 92 % 1013,6 hPa 0,0 l/m 0 min 0 min 0 W/m 29,0 km/h (5 Bft) 95,74 %
29.11.2018 04:16 7,4 C 7,2 C 6,1 C 92 % 1013,6 hPa 0,0 l/m 0 min 0 min 0 W/m 25,7 km/h (4 Bft) 97,87 %
29.11.2018 04:18 7,4 C 7,2 C 6,1 C 92 % 1013,7 hPa 0,0 l/m 0 min 0 min 0 W/m 22,5 km/h (4 Bft) 100,00 %
29.11.2018 04:20 7,4 C 7,2 C 6,1 C 92 % 1013,7 hPa 0,0 l/m 0 min 0 min 0 W/m 32,2 km/h (5 Bft) 100,00 %
29.11.2018 04:22 7,4 C 7,2 C 6,1 C 92 % 1013,7 hPa 0,0 l/m 0 min 0 min 0 W/m 25,7 km/h (4 Bft) 100,00 %
29.11.2018 04:24 7,4 C 7,2 C 6,1 C 92 % 1013,7 hPa 0,0 l/m 0 min 0 min 0 W/m 29,0 km/h (5 Bft) 95,65 %
29.11.2018 04:26 7,4 C 7,2 C 6,1 C 92 % 1013,7 hPa 0,0 l/m 0 min 0 min 0 W/m 38,6 km/h (5 Bft) 97,87 %
29.11.2018 04:28 7,4 C 7,2 C 6,1 C 92 % 1013,8 hPa 0,0 l/m 0 min 0 min 0 W/m 29,0 km/h (5 Bft) 97,87 %
29.11.2018 04:30 7,4 C 7,2 C 6,1 C 92 % 1013,7 hPa 0,0 l/m 0 min 0 min 0 W/m 25,7 km/h (4 Bft) 91,49 %
29.11.2018 04:32 7,4 C 6,7 C 6,1 C 92 % 1013,7 hPa 0,0 l/m 0 min 0 min 0 W/m 25,7 km/h (4 Bft) 91,49 %
29.11.2018 04:34 7,4 C 7,2 C 6,1 C 92 % 1013,7 hPa 0,0 l/m 0 min 0 min 0 W/m 41,8 km/h (6 Bft) 91,49 %
29.11.2018 04:36 7,4 C 7,2 C 6,1 C 92 % 1013,9 hPa 0,0 l/m 0 min 0 min 0 W/m 22,5 km/h (4 Bft) 93,48 %
29.11.2018 04:38 7,4 C 7,2 C 6,1 C 92 % 1013,8 hPa 0,0 l/m 0 min 0 min 0 W/m 32,2 km/h (5 Bft) 89,36 %
29.11.2018 04:40 7,4 C 7,2 C 6,1 C 92 % 1013,8 hPa 0,0 l/m 0 min 0 min 0 W/m 29,0 km/h (5 Bft) 93,62 %
29.11.2018 04:42 7,4 C 6,7 C 6,1 C 92 % 1013,8 hPa 0,0 l/m 0 min 0 min 0 W/m 25,7 km/h (4 Bft) 85,11 %
29.11.2018 04:44 7,4 C 6,7 C 6,1 C 92 % 1013,8 hPa 0,0 l/m 0 min 0 min 0 W/m 25,7 km/h (4 Bft) 80,85 %
29.11.2018 04:46 7,4 C 6,7 C 6,1 C 92 % 1013,8 hPa 0,0 l/m 0 min 0 min 0 W/m 25,7 km/h (4 Bft) 89,13 %
29.11.2018 04:48 7,4 C 7,2 C 6,1 C 92 % 1013,8 hPa 0,0 l/m 0 min 0 min 0 W/m 25,7 km/h (4 Bft) 89,36 %
29.11.2018 04:50 7,4 C 7,2 C 6,1 C 92 % 1013,9 hPa 0,0 l/m 0 min 0 min 0 W/m 19,3 km/h (3 Bft) 87,23 %
29.11.2018 04:52 7,4 C 7,2 C 6,1 C 92 % 1013,7 hPa 0,0 l/m 0 min 0 min 0 W/m 22,5 km/h (4 Bft) 95,74 %
29.11.2018 04:54 7,4 C 7,2 C 6,1 C 92 % 1013,8 hPa 0,0 l/m 0 min 0 min 0 W/m 29,0 km/h (5 Bft) 95,74 %
29.11.2018 04:56 7,4 C 7,2 C 6,1 C 92 % 1013,9 hPa 0,0 l/m 0 min 0 min 0 W/m 45,1 km/h (6 Bft) 91,49 %
29.11.2018 04:58 7,4 C 7,2 C 6,7 C 92 % 1013,8 hPa 0,0 l/m 0 min 0 min 0 W/m 35,4 km/h (5 Bft) 91,30 %
29.11.2018 05:00 7,4 C 7,2 C 6,7 C 92 % 1013,7 hPa 0,0 l/m 0 min 0 min 0 W/m 32,2 km/h (5 Bft) 89,36 %
29.11.2018 05:02 7,4 C 7,2 C 6,7 C 92 % 1013,6 hPa 0,0 l/m 0 min 0 min 0 W/m 35,4 km/h (5 Bft) 91,49 %
29.11.2018 05:04 7,4 C 7,2 C 6,1 C 92 % 1013,6 hPa 0,0 l/m 0 min 0 min 0 W/m 22,5 km/h (4 Bft) 93,62 %
29.11.2018 05:05 7,4 C 7,2 C 6,1 C 92 % 1013,6 hPa 0,0 l/m 0 min 0 min 0 W/m 35,4 km/h (5 Bft) 95,61 %
29.11.2018 05:10 7,4 C 7,2 C 6,7 C 92 % 1013,6 hPa 0,0 l/m 0 min 0 min 0 W/m 35,4 km/h (5 Bft) 100,00 %
29.11.2018 05:12 7,4 C 7,2 C 6,7 C 92 % 1013,6 hPa 0,0 l/m 0 min 0 min 0 W/m 32,2 km/h (5 Bft) 97,14 %
29.11.2018 05:14 7,4 C 7,2 C 6,1 C 92 % 1013,5 hPa 0,0 l/m 0 min 0 min 0 W/m 38,6 km/h (5 Bft) 94,29 %
29.11.2018 05:16 7,4 C 7,2 C 6,1 C 92 % 1013,6 hPa 0,0 l/m 0 min 0 min 0 W/m 35,4 km/h (5 Bft) 97,87 %
29.11.2018 05:18 7,4 C 7,2 C 6,1 C 92 % 1013,5 hPa 0,0 l/m 0 min 0 min 0 W/m 32,2 km/h (5 Bft) 96,23 %
29.11.2018 05:20 7,4 C 7,2 C 6,1 C 92 % 1013,5 hPa 0,0 l/m 0 min 0 min 0 W/m 35,4 km/h (5 Bft) 94,00 %
29.11.2018 05:22 7,4 C 6,7 C 6,1 C 92 % 1013,4 hPa 0,0 l/m 0 min 2 min 0 W/m 32,2 km/h (5 Bft) 95,92 %
29.11.2018 05:24 7,4 C 6,7 C 6,1 C 92 % 1013,5 hPa 0,0 l/m 0 min 2 min 0 W/m 32,2 km/h (5 Bft) 95,74 %
29.11.2018 05:26 7,4 C 6,7 C 6,1 C 92 % 1013,3 hPa 0,0 l/m 0 min 2 min 0 W/m 29,0 km/h (5 Bft) 95,74 %
29.11.2018 05:28 7,4 C 6,7 C 6,1 C 92 % 1013,4 hPa 0,0 l/m 0 min 2 min 0 W/m 29,0 km/h (5 Bft) 95,65 %
29.11.2018 05:30 7,4 C 6,7 C 6,1 C 92 % 1013,4 hPa 0,0 l/m 0 min 2 min 0 W/m 22,5 km/h (4 Bft) 94,44 %
29.11.2018 05:32 7,4 C 6,7 C 6,1 C 92 % 1013,3 hPa 0,0 l/m 0 min 0 min 0 W/m 25,7 km/h (4 Bft) 93,48 %
29.11.2018 05:34 7,4 C 6,7 C 6,1 C 93 % 1013,4 hPa 0,0 l/m 0 min 0 min 0 W/m 22,5 km/h (4 Bft) 87,04 %
29.11.2018 05:36 7,4 C 6,7 C 5,6 C 93 % 1013,4 hPa 0,0 l/m 0 min 0 min 0 W/m 29,0 km/h (5 Bft) 82,61 %
29.11.2018 05:38 7,4 C 6,7 C 5,6 C 93 % 1013,4 hPa 0,0 l/m 0 min 0 min 0 W/m 22,5 km/h (4 Bft) 97,87 %
29.11.2018 05:40 7,4 C 6,7 C 5,6 C 93 % 1013,4 hPa 0,0 l/m 0 min 0 min 0 W/m 25,7 km/h (4 Bft) 94,00 %
29.11.2018 05:42 7,4 C 6,7 C 5,6 C 93 % 1013,4 hPa 0,0 l/m 0 min 0 min 0 W/m 35,4 km/h (5 Bft) 83,67 %
29.11.2018 05:44 7,3 C 6,7 C 5,6 C 93 % 1013,4 hPa 0,0 l/m 0 min 0 min 0 W/m 29,0 km/h (5 Bft) 80,00 %
29.11.2018 05:46 7,3 C 6,7 C 5,6 C 93 % 1013,5 hPa 0,0 l/m 0 min 0 min 0 W/m 25,7 km/h (4 Bft) 89,36 %
29.11.2018 05:48 7,3 C 6,7 C 6,1 C 93 % 1013,5 hPa 0,0 l/m 0 min 0 min 0 W/m 29,0 km/h (5 Bft) 91,49 %
29.11.2018 05:50 7,3 C 6,7 C 6,1 C 93 % 1013,5 hPa 0,0 l/m 0 min 0 min 0 W/m 32,2 km/h (5 Bft) 96,23 %
29.11.2018 05:52 7,3 C 6,7 C 6,1 C 93 % 1013,4 hPa 0,0 l/m 0 min 0 min 0 W/m 29,0 km/h (5 Bft) 93,62 %
29.11.2018 05:54 7,3 C 6,7 C 6,1 C 93 % 1013,4 hPa 0,0 l/m 0 min 0 min 0 W/m 25,7 km/h (4 Bft) 91,49 %
29.11.2018 05:56 7,3 C 6,7 C 6,1 C 93 % 1013,4 hPa 0,0 l/m 0 min 0 min 0 W/m 41,8 km/h (6 Bft) 90,00 %
29.11.2018 05:58 7,3 C 6,7 C 6,1 C 93 % 1013,3 hPa 0,0 l/m 0 min 2 min 0 W/m 32,2 km/h (5 Bft) 89,80 %
29.11.2018 06:00 7,3 C 6,7 C 6,1 C 93 % 1013,2 hPa 0,0 l/m 0 min 0 min 0 W/m 29,0 km/h (5 Bft) 89,36 %
29.11.2018 06:02 7,3 C 6,7 C 6,1 C 93 % 1013,2 hPa 0,0 l/m 0 min 2 min 0 W/m 29,0 km/h (5 Bft) 94,29 %
29.11.2018 06:04 7,3 C 6,7 C 6,1 C 93 % 1013,2 hPa 0,0 l/m 0 min 2 min 0 W/m 41,8 km/h (6 Bft) 86,79 %
29.11.2018 06:08 7,3 C 6,7 C 6,1 C 93 % 1013,3 hPa 0,0 l/m 0 min 4 min 0 W/m 29,0 km/h (5 Bft) 88,30 %
29.11.2018 06:10 7,3 C 6,7 C 6,1 C 93 % 1013,3 hPa 0,0 l/m 0 min 2 min 0 W/m 32,2 km/h (5 Bft) 93,62 %
29.11.2018 06:12 7,3 C 6,1 C 6,1 C 93 % 1013,0 hPa 0,2 l/m 0 min 2 min 0 W/m 38,6 km/h (5 Bft) 95,65 %
29.11.2018 06:14 7,3 C 6,1 C 5,6 C 93 % 1013,0 hPa 0,0 l/m 0 min 2 min 0 W/m 35,4 km/h (5 Bft) 94,00 %
29.11.2018 06:16 7,3 C 6,1 C 5,6 C 93 % 1013,0 hPa 0,0 l/m 0 min 2 min 0 W/m 29,0 km/h (5 Bft) 95,74 %
29.11.2018 06:18 7,3 C 6,1 C 5,6 C 93 % 1013,0 hPa 0,0 l/m 0 min 2 min 0 W/m 29,0 km/h (5 Bft) 91,84 %
29.11.2018 06:20 7,3 C 6,1 C 5,6 C 93 % 1012,8 hPa 0,0 l/m 0 min 2 min 0 W/m 29,0 km/h (5 Bft) 87,23 %
29.11.2018 06:22 7,3 C 6,1 C 5,6 C 93 % 1012,9 hPa 0,0 l/m 0 min 0 min 0 W/m 25,7 km/h (4 Bft) 89,36 %
29.11.2018 06:24 7,3 C 6,1 C 5,6 C 93 % 1012,9 hPa 0,0 l/m 0 min 0 min 0 W/m 22,5 km/h (4 Bft) 85,71 %
29.11.2018 06:26 7,3 C 6,1 C 5,6 C 93 % 1012,7 hPa 0,0 l/m 0 min 0 min 0 W/m 25,7 km/h (4 Bft) 86,79 %
29.11.2018 06:28 7,3 C 6,1 C 5,6 C 93 % 1012,8 hPa 0,0 l/m 0 min 2 min 0 W/m 32,2 km/h (5 Bft) 90,00 %
29.11.2018 06:30 7,3 C 6,7 C 5,6 C 93 % 1012,9 hPa 0,0 l/m 0 min 0 min 0 W/m 32,2 km/h (5 Bft) 74,47 %
29.11.2018 06:32 7,3 C 6,7 C 5,6 C 93 % 1012,9 hPa 0,0 l/m 0 min 0 min 0 W/m 29,0 km/h (5 Bft) 87,23 %
29.11.2018 06:34 7,3 C 6,7 C 5,6 C 93 % 1012,9 hPa 0,0 l/m 0 min 0 min 0 W/m 22,5 km/h (4 Bft) 85,71 %
29.11.2018 06:36 7,2 C 6,7 C 6,1 C 94 % 1012,8 hPa 0,0 l/m 0 min 0 min 0 W/m 25,7 km/h (4 Bft) 82,98 %
29.11.2018 06:38 7,2 C 6,7 C 6,1 C 94 % 1012,9 hPa 0,0 l/m 0 min 0 min 0 W/m 29,0 km/h (5 Bft) 88,57 %
29.11.2018 06:40 7,2 C 6,7 C 6,1 C 94 % 1012,8 hPa 0,0 l/m 0 min 0 min 0 W/m 22,5 km/h (4 Bft) 84,91 %
29.11.2018 06:42 7,3 C 6,7 C 6,1 C 94 % 1012,8 hPa 0,0 l/m 0 min 0 min 0 W/m 22,5 km/h (4 Bft) 82,98 %
29.11.2018 06:44 7,2 C 6,7 C 6,1 C 94 % 1012,8 hPa 0,0 l/m 0 min 0 min 0 W/m 25,7 km/h (4 Bft) 97,87 %
29.11.2018 06:46 7,2 C 6,7 C 6,1 C 94 % 1012,9 hPa 0,0 l/m 0 min 0 min 0 W/m 25,7 km/h (4 Bft) 100,00 %
29.11.2018 06:48 7,2 C 6,7 C 6,1 C 94 % 1012,9 hPa 0,0 l/m 0 min 0 min 0 W/m 25,7 km/h (4 Bft) 100,00 %
29.11.2018 06:50 7,2 C 6,7 C 6,1 C 94 % 1012,8 hPa 0,0 l/m 0 min 0 min 0 W/m 29,0 km/h (5 Bft) 96,00 %
29.11.2018 06:52 7,2 C 6,7 C 6,1 C 94 % 1012,8 hPa 0,0 l/m 0 min 0 min 0 W/m 32,2 km/h (5 Bft) 97,96 %
29.11.2018 06:54 7,2 C 6,7 C 6,1 C 94 % 1012,8 hPa 0,0 l/m 0 min 0 min 0 W/m 25,7 km/h (4 Bft) 100,00 %
29.11.2018 06:56 7,2 C 6,7 C 6,1 C 94 % 1012,8 hPa 0,0 l/m 0 min 0 min 0 W/m 29,0 km/h (5 Bft) 100,00 %
29.11.2018 06:58 7,2 C 6,7 C 6,1 C 94 % 1012,8 hPa 0,0 l/m 0 min 0 min 0 W/m 29,0 km/h (5 Bft) 100,00 %
29.11.2018 07:00 7,2 C 6,7 C 6,1 C 94 % 1012,8 hPa 0,0 l/m 0 min 0 min 0 W/m 29,0 km/h (5 Bft) 100,00 %
29.11.2018 07:02 7,2 C 6,7 C 6,1 C 94 % 1012,9 hPa 0,0 l/m 0 min 0 min 0 W/m 29,0 km/h (5 Bft) 96,23 %
29.11.2018 07:04 7,2 C 6,7 C 6,1 C 94 % 1012,8 hPa 0,0 l/m 0 min 0 min 0 W/m 25,7 km/h (4 Bft) 93,62 %
29.11.2018 07:06 7,2 C 6,7 C 6,1 C 94 % 1012,8 hPa 0,0 l/m 0 min 0 min 0 W/m 32,2 km/h (5 Bft) 93,62 %
29.11.2018 07:08 7,2 C 6,7 C 6,1 C 94 % 1012,8 hPa 0,0 l/m 0 min 0 min 0 W/m 29,0 km/h (5 Bft) 100,00 %
29.11.2018 07:10 7,2 C 6,7 C 6,1 C 94 % 1012,8 hPa 0,0 l/m 0 min 0 min 0 W/m 32,2 km/h (5 Bft) 100,00 %
29.11.2018 07:12 7,2 C 6,7 C 6,1 C 94 % 1012,8 hPa 0,0 l/m 0 min 0 min 0 W/m 22,5 km/h (4 Bft) 100,00 %
29.11.2018 07:14 7,2 C 6,7 C 6,1 C 94 % 1012,9 hPa 0,0 l/m 0 min 0 min 0 W/m 32,2 km/h (5 Bft) 100,00 %
29.11.2018 07:16 7,2 C 6,7 C 6,1 C 94 % 1012,8 hPa 0,0 l/m 0 min 0 min 0 W/m 29,0 km/h (5 Bft) 100,00 %
29.11.2018 07:18 7,2 C 6,7 C 6,1 C 94 % 1012,8 hPa 0,0 l/m 0 min 0 min 0 W/m 25,7 km/h (4 Bft) 100,00 %
29.11.2018 07:20 7,2 C 6,7 C 6,1 C 94 % 1012,8 hPa 0,0 l/m 0 min 0 min 0 W/m 29,0 km/h (5 Bft) 100,00 %
29.11.2018 07:22 7,2 C 6,7 C 6,1 C 94 % 1012,8 hPa 0,0 l/m 0 min 0 min 0 W/m 25,7 km/h (4 Bft) 97,87 %
29.11.2018 07:24 7,2 C 6,7 C 6,1 C 94 % 1012,8 hPa 0,0 l/m 0 min 2 min 0 W/m 29,0 km/h (5 Bft) 100,00 %
29.11.2018 07:26 7,1 C 6,7 C 6,1 C 94 % 1012,8 hPa 0,0 l/m 0 min 2 min 0 W/m 51,5 km/h (7 Bft) 97,87 %
29.11.2018 07:28 7,1 C 6,7 C 6,1 C 94 % 1012,8 hPa 0,0 l/m 0 min 2 min 0 W/m 25,7 km/h (4 Bft) 97,87 %
29.11.2018 07:30 7,1 C 6,7 C 6,1 C 94 % 1012,7 hPa 0,0 l/m 0 min 0 min 0 W/m 22,5 km/h (4 Bft) 100,00 %
29.11.2018 07:32 7,1 C 6,7 C 6,1 C 94 % 1012,7 hPa 0,0 l/m 0 min 0 min 0 W/m 32,2 km/h (5 Bft) 100,00 %
29.11.2018 07:34 7,1 C 6,7 C 6,1 C 94 % 1012,7 hPa 0,0 l/m 0 min 0 min 0 W/m 38,6 km/h (5 Bft) 100,00 %
29.11.2018 07:36 7,1 C 6,7 C 6,1 C 94 % 1012,8 hPa 0,0 l/m 0 min 0 min 0 W/m 35,4 km/h (5 Bft) 100,00 %
29.11.2018 07:38 7,1 C 6,7 C 6,1 C 94 % 1012,8 hPa 0,0 l/m 0 min 0 min 0 W/m 35,4 km/h (5 Bft) 100,00 %
29.11.2018 07:40 7,1 C 6,7 C 6,1 C 94 % 1012,8 hPa 0,0 l/m 0 min 0 min 0 W/m 29,0 km/h (5 Bft) 97,83 %
29.11.2018 07:42 7,1 C 6,7 C 6,1 C 94 % 1012,8 hPa 0,0 l/m 0 min 0 min 0 W/m 45,1 km/h (6 Bft) 100,00 %
29.11.2018 07:44 7,1 C 6,7 C 6,1 C 94 % 1012,9 hPa 0,0 l/m 0 min 0 min 0 W/m 35,4 km/h (5 Bft) 95,74 %
29.11.2018 07:46 7,1 C 6,7 C 6,1 C 94 % 1012,8 hPa 0,0 l/m 0 min 0 min 0 W/m 29,0 km/h (5 Bft) 100,00 %
29.11.2018 07:48 7,1 C 6,7 C 6,1 C 94 % 1012,8 hPa 0,0 l/m 0 min 0 min 0 W/m 35,4 km/h (5 Bft) 100,00 %
29.11.2018 07:50 7,1 C 6,7 C 6,1 C 94 % 1012,8 hPa 0,0 l/m 0 min 0 min 0 W/m 35,4 km/h (5 Bft) 100,00 %
29.11.2018 07:52 7,1 C 6,7 C 6,1 C 94 % 1012,8 hPa 0,0 l/m 0 min 0 min 0 W/m 32,2 km/h (5 Bft) 100,00 %
29.11.2018 07:54 7,1 C 6,7 C 6,1 C 94 % 1012,6 hPa 0,0 l/m 0 min 0 min 0 W/m 41,8 km/h (6 Bft) 100,00 %
29.11.2018 07:56 7,1 C 6,7 C 6,1 C 94 % 1012,6 hPa 0,0 l/m 0 min 0 min 0 W/m 32,2 km/h (5 Bft) 100,00 %
29.11.2018 07:58 7,1 C 6,7 C 6,1 C 94 % 1012,6 hPa 0,0 l/m 0 min 0 min 0 W/m 48,3 km/h (6 Bft) 97,87 %
29.11.2018 08:00 7,1 C 6,7 C 6,1 C 94 % 1012,6 hPa 0,0 l/m 0 min 0 min 0 W/m 41,8 km/h (6 Bft) 96,00 %
29.11.2018 08:02 7,1 C 6,7 C 6,1 C 94 % 1012,6 hPa 0,0 l/m 0 min 0 min 0 W/m 35,4 km/h (5 Bft) 97,87 %
29.11.2018 08:04 7,1 C 6,7 C 6,1 C 94 % 1012,6 hPa 0,0 l/m 0 min 0 min 0 W/m 32,2 km/h (5 Bft) 95,92 %
29.11.2018 08:06 7,1 C 6,7 C 6,1 C 94 % 1012,5 hPa 0,0 l/m 0 min 0 min 0 W/m 25,7 km/h (4 Bft) 97,87 %
29.11.2018 08:08 7,1 C 6,7 C 6,1 C 94 % 1012,5 hPa 0,0 l/m 0 min 0 min 0 W/m 32,2 km/h (5 Bft) 97,87 %
29.11.2018 08:10 7,1 C 6,7 C 6,1 C 94 % 1012,4 hPa 0,0 l/m 0 min 0 min 0 W/m 29,0 km/h (5 Bft) 97,87 %
29.11.2018 08:12 7,1 C 6,7 C 5,6 C 94 % 1012,4 hPa 0,0 l/m 0 min 0 min 0 W/m 32,2 km/h (5 Bft) 91,30 %
29.11.2018 08:14 7,1 C 6,7 C 5,6 C 94 % 1012,3 hPa 0,0 l/m 0 min 0 min 0 W/m 25,7 km/h (4 Bft) 95,74 %
29.11.2018 08:16 7,1 C 6,7 C 5,6 C 94 % 1012,4 hPa 0,0 l/m 0 min 0 min 0 W/m 19,3 km/h (3 Bft) 97,87 %
29.11.2018 08:18 7,1 C 6,7 C 5,6 C 94 % 1012,3 hPa 0,0 l/m 0 min 0 min 0 W/m 22,5 km/h (4 Bft) 95,74 %
29.11.2018 08:20 7,1 C 6,7 C 5,6 C 94 % 1012,4 hPa 0,0 l/m 0 min 0 min 0 W/m 25,7 km/h (4 Bft) 95,74 %
29.11.2018 08:22 7,1 C 6,7 C 5,6 C 94 % 1012,4 hPa 0,0 l/m 0 min 0 min 4 W/m 35,4 km/h (5 Bft) 94,29 %
29.11.2018 08:24 7,1 C 6,7 C 5,6 C 94 % 1012,3 hPa 0,0 l/m 0 min 0 min 5 W/m 29,0 km/h (5 Bft) 95,74 %
29.11.2018 08:26 7,0 C 6,7 C 5,6 C 93 % 1012,3 hPa 0,0 l/m 0 min 0 min 7 W/m 25,7 km/h (4 Bft) 95,65 %
29.11.2018 08:28 7,1 C 6,7 C 5,6 C 93 % 1012,3 hPa 0,0 l/m 0 min 0 min 8 W/m 22,5 km/h (4 Bft) 96,30 %
29.11.2018 08:30 7,0 C 6,7 C 5,6 C 93 % 1012,4 hPa 0,0 l/m 0 min 0 min 9 W/m 38,6 km/h (5 Bft) 93,62 %
29.11.2018 08:32 7,0 C 6,7 C 6,1 C 93 % 1012,4 hPa 0,0 l/m 0 min 0 min 11 W/m 35,4 km/h (5 Bft) 93,48 %
29.11.2018 08:34 7,0 C 6,7 C 6,1 C 93 % 1012,4 hPa 0,0 l/m 0 min 0 min 12 W/m 38,6 km/h (5 Bft) 92,00 %
29.11.2018 08:36 7,0 C 6,7 C 6,1 C 93 % 1012,3 hPa 0,0 l/m 0 min 0 min 13 W/m 41,8 km/h (6 Bft) 95,92 %
29.11.2018 08:38 7,1 C 6,7 C 6,1 C 93 % 1012,3 hPa 0,0 l/m 0 min 0 min 14 W/m 22,5 km/h (4 Bft) 93,62 %
29.11.2018 08:40 7,1 C 6,7 C 6,1 C 93 % 1012,3 hPa 0,0 l/m 0 min 0 min 16 W/m 38,6 km/h (5 Bft) 95,74 %
29.11.2018 08:42 7,1 C 6,7 C 6,1 C 93 % 1012,3 hPa 0,0 l/m 0 min 0 min 16 W/m 32,2 km/h (5 Bft) 88,57 %
29.11.2018 08:44 7,1 C 6,7 C 6,1 C 93 % 1012,3 hPa 0,0 l/m 0 min 0 min 16 W/m 35,4 km/h (5 Bft) 94,34 %
29.11.2018 08:46 7,1 C 6,7 C 6,1 C 93 % 1012,4 hPa 0,0 l/m 0 min 0 min 16 W/m 22,5 km/h (4 Bft) 93,62 %
29.11.2018 08:48 7,1 C 6,7 C 6,1 C 93 % 1012,3 hPa 0,0 l/m 0 min 0 min 17 W/m 48,3 km/h (6 Bft) 93,62 %
29.11.2018 08:50 7,2 C 6,7 C 6,1 C 93 % 1012,4 hPa 0,0 l/m 0 min 0 min 18 W/m 45,1 km/h (6 Bft) 91,49 %
29.11.2018 08:52 7,2 C 6,7 C 6,1 C 93 % 1012,3 hPa 0,0 l/m 0 min 0 min 20 W/m 32,2 km/h (5 Bft) 93,62 %
29.11.2018 08:54 7,2 C 6,7 C 6,1 C 93 % 1012,3 hPa 0,0 l/m 0 min 0 min 21 W/m 25,7 km/h (4 Bft) 96,00 %
29.11.2018 08:56 7,2 C 6,7 C 6,1 C 93 % 1012,3 hPa 0,0 l/m 0 min 0 min 22 W/m 25,7 km/h (4 Bft) 93,88 %
29.11.2018 08:58 7,2 C 6,7 C 6,1 C 93 % 1012,2 hPa 0,0 l/m 0 min 0 min 23 W/m 35,4 km/h (5 Bft) 95,74 %
29.11.2018 09:00 7,2 C 7,2 C 6,1 C 93 % 1012,1 hPa 0,0 l/m 0 min 0 min 22 W/m 29,0 km/h (5 Bft) 95,65 %
29.11.2018 09:02 7,2 C 6,7 C 6,1 C 93 % 1011,9 hPa 0,0 l/m 0 min 2 min 21 W/m 32,2 km/h (5 Bft) 91,43 %
29.11.2018 09:04 7,3 C 6,7 C 6,1 C 93 % 1012,1 hPa 0,0 l/m 0 min 2 min 22 W/m 48,3 km/h (6 Bft) 95,74 %
29.11.2018 09:06 7,3 C 6,7 C 6,1 C 93 % 1012,1 hPa 0,0 l/m 0 min 0 min 24 W/m 35,4 km/h (5 Bft) 94,44 %
29.11.2018 09:08 7,3 C 6,7 C 6,1 C 93 % 1012,1 hPa 0,0 l/m 0 min 0 min 28 W/m 25,7 km/h (4 Bft) 97,83 %
29.11.2018 09:10 7,3 C 6,7 C 6,1 C 93 % 1012,0 hPa 0,0 l/m 0 min 0 min 28 W/m 32,2 km/h (5 Bft) 97,87 %
29.11.2018 09:12 7,3 C 6,7 C 6,1 C 93 % 1012,0 hPa 0,0 l/m 0 min 2 min 28 W/m 45,1 km/h (6 Bft) 95,74 %
29.11.2018 09:14 7,3 C 6,7 C 6,1 C 93 % 1011,9 hPa 0,0 l/m 0 min 2 min 29 W/m 45,1 km/h (6 Bft) 97,87 %
29.11.2018 09:16 7,3 C 6,7 C 6,1 C 93 % 1011,9 hPa 0,0 l/m 0 min 2 min 32 W/m 38,6 km/h (5 Bft) 95,74 %
29.11.2018 09:18 7,3 C 6,7 C 6,1 C 93 % 1011,9 hPa 0,0 l/m 0 min 0 min 33 W/m 19,3 km/h (3 Bft) 95,92 %
29.11.2018 09:20 7,3 C 6,7 C 6,1 C 93 % 1012,1 hPa 0,0 l/m 0 min 2 min 36 W/m 35,4 km/h (5 Bft) 97,87 %
29.11.2018 09:22 7,3 C 6,7 C 6,1 C 93 % 1012,0 hPa 0,0 l/m 0 min 0 min 37 W/m 35,4 km/h (5 Bft) 95,74 %
29.11.2018 09:24 7,3 C 6,7 C 6,1 C 93 % 1012,1 hPa 0,0 l/m 0 min 0 min 37 W/m 41,8 km/h (6 Bft) 97,87 %
29.11.2018 09:26 7,3 C 6,7 C 6,1 C 93 % 1012,1 hPa 0,0 l/m 0 min 0 min 38 W/m 41,8 km/h (6 Bft) 97,87 %
29.11.2018 09:28 7,3 C 6,7 C 6,1 C 93 % 1012,2 hPa 0,0 l/m 0 min 0 min 39 W/m 38,6 km/h (5 Bft) 97,87 %
29.11.2018 09:30 7,3 C 6,7 C 6,1 C 93 % 1012,0 hPa 0,0 l/m 0 min 0 min 39 W/m 41,8 km/h (6 Bft) 95,65 %
29.11.2018 09:32 7,3 C 6,7 C 6,1 C 93 % 1012,1 hPa 0,0 l/m 0 min 0 min 38 W/m 35,4 km/h (5 Bft) 95,74 %
29.11.2018 09:34 7,3 C 6,7 C 6,1 C 93 % 1012,1 hPa 0,0 l/m 0 min 0 min 40 W/m 29,0 km/h (5 Bft) 97,96 %
29.11.2018 09:36 7,3 C 6,7 C 6,1 C 93 % 1012,2 hPa 0,0 l/m 0 min 0 min 41 W/m 48,3 km/h (6 Bft) 97,87 %
29.11.2018 09:38 7,3 C 6,7 C 6,1 C 93 % 1012,2 hPa 0,0 l/m 0 min 0 min 39 W/m 35,4 km/h (5 Bft) 97,87 %
29.11.2018 09:40 7,3 C 6,7 C 6,1 C 93 % 1012,1 hPa 0,0 l/m 0 min 0 min 38 W/m 35,4 km/h (5 Bft) 100,00 %
29.11.2018 09:42 7,3 C 6,7 C 6,1 C 93 % 1012,1 hPa 0,0 l/m 0 min 0 min 34 W/m 25,7 km/h (4 Bft) 100,00 %
29.11.2018 09:44 7,3 C 6,7 C 6,1 C 93 % 1012,2 hPa 0,0 l/m 0 min 0 min 33 W/m 35,4 km/h (5 Bft) 100,00 %
29.11.2018 09:46 7,3 C 6,7 C 6,1 C 93 % 1012,2 hPa 0,0 l/m 0 min 0 min 34 W/m 41,8 km/h (6 Bft) 100,00 %
29.11.2018 09:48 7,3 C 6,7 C 6,1 C 92 % 1012,2 hPa 0,0 l/m 0 min 0 min 37 W/m 29,0 km/h (5 Bft) 100,00 %
29.11.2018 09:50 7,3 C 6,7 C 6,1 C 92 % 1012,2 hPa 0,0 l/m 0 min 0 min 39 W/m 35,4 km/h (5 Bft) 100,00 %
29.11.2018 09:52 7,3 C 7,2 C 6,7 C 92 % 1012,3 hPa 0,0 l/m 0 min 0 min 40 W/m 25,7 km/h (4 Bft) 97,87 %
29.11.2018 09:54 7,3 C 7,2 C 6,7 C 92 % 1012,4 hPa 0,0 l/m 0 min 2 min 44 W/m 25,7 km/h (4 Bft) 100,00 %
29.11.2018 09:56 7,3 C 7,2 C 6,7 C 92 % 1012,3 hPa 0,0 l/m 0 min 0 min 49 W/m 35,4 km/h (5 Bft) 97,87 %
29.11.2018 09:58 7,3 C 7,2 C 6,7 C 92 % 1012,3 hPa 0,0 l/m 0 min 0 min 55 W/m 29,0 km/h (5 Bft) 100,00 %
29.11.2018 10:00 7,4 C 7,2 C 6,7 C 92 % 1012,3 hPa 0,0 l/m 0 min 0 min 60 W/m 19,3 km/h (3 Bft) 100,00 %
29.11.2018 10:02 7,4 C 7,2 C 6,7 C 92 % 1012,4 hPa 0,0 l/m 0 min 0 min 62 W/m 45,1 km/h (6 Bft) 100,00 %
29.11.2018 10:04 7,4 C 7,2 C 6,7 C 92 % 1012,4 hPa 0,0 l/m 0 min 0 min 65 W/m 29,0 km/h (5 Bft) 100,00 %
29.11.2018 10:06 7,4 C 7,2 C 6,7 C 92 % 1012,4 hPa 0,0 l/m 0 min 0 min 65 W/m 29,0 km/h (5 Bft) 100,00 %
29.11.2018 10:08 7,4 C 7,2 C 6,7 C 92 % 1012,4 hPa 0,0 l/m 0 min 0 min 65 W/m 25,7 km/h (4 Bft) 100,00 %
29.11.2018 10:10 7,4 C 7,2 C 6,7 C 92 % 1012,4 hPa 0,0 l/m 0 min 0 min 63 W/m 29,0 km/h (5 Bft) 100,00 %
29.11.2018 10:12 7,4 C 7,2 C 6,7 C 92 % 1012,4 hPa 0,0 l/m 0 min 0 min 62 W/m 29,0 km/h (5 Bft) 100,00 %
29.11.2018 10:14 7,4 C 7,2 C 6,7 C 92 % 1012,5 hPa 0,0 l/m 0 min 0 min 62 W/m 22,5 km/h (4 Bft) 98,00 %
29.11.2018 10:16 7,4 C 7,2 C 6,7 C 92 % 1012,5 hPa 0,0 l/m 0 min 0 min 63 W/m 32,2 km/h (5 Bft) 100,00 %
29.11.2018 10:18 7,4 C 7,2 C 6,7 C 92 % 1012,5 hPa 0,0 l/m 0 min 2 min 65 W/m 29,0 km/h (5 Bft) 100,00 %
29.11.2018 10:20 7,4 C 7,2 C 6,7 C 92 % 1012,4 hPa 0,0 l/m 0 min 2 min 68 W/m 35,4 km/h (5 Bft) 100,00 %
29.11.2018 10:22 7,4 C 7,2 C 6,7 C 92 % 1012,3 hPa 0,0 l/m 0 min 0 min 69 W/m 32,2 km/h (5 Bft) 100,00 %
29.11.2018 10:24 7,4 C 7,2 C 6,7 C 92 % 1012,3 hPa 0,0 l/m 0 min 0 min 69 W/m 35,4 km/h (5 Bft) 100,00 %
29.11.2018 10:26 7,4 C 7,2 C 6,7 C 92 % 1012,3 hPa 0,0 l/m 0 min 0 min 66 W/m 32,2 km/h (5 Bft) 100,00 %
29.11.2018 10:28 7,4 C 7,2 C 6,7 C 92 % 1012,3 hPa 0,0 l/m 0 min 0 min 63 W/m 35,4 km/h (5 Bft) 95,74 %
29.11.2018 10:30 7,4 C 7,2 C 6,7 C 92 % 1012,2 hPa 0,0 l/m 0 min 0 min 60 W/m 22,5 km/h (4 Bft) 100,00 %
29.11.2018 10:32 7,4 C 7,2 C 6,7 C 92 % 1012,2 hPa 0,0 l/m 0 min 0 min 55 W/m 25,7 km/h (4 Bft) 100,00 %
29.11.2018 10:34 7,4 C 7,2 C 6,7 C 92 % 1012,1 hPa 0,0 l/m 0 min 0 min 48 W/m 25,7 km/h (4 Bft) 100,00 %
29.11.2018 10:36 7,4 C 7,2 C 6,7 C 92 % 1012,2 hPa 0,0 l/m 0 min 0 min 46 W/m 22,5 km/h (4 Bft) 97,83 %
29.11.2018 10:38 7,4 C 7,2 C 6,7 C 92 % 1012,1 hPa 0,0 l/m 0 min 0 min 46 W/m 41,8 km/h (6 Bft) 98,18 %
29.11.2018 10:40 7,4 C 7,2 C 6,7 C 91 % 1012,1 hPa 0,0 l/m 0 min 0 min 46 W/m 35,4 km/h (5 Bft) 100,00 %
29.11.2018 10:42 7,4 C 7,2 C 6,7 C 91 % 1012,2 hPa 0,0 l/m 0 min 0 min 46 W/m 41,8 km/h (6 Bft) 98,00 %
29.11.2018 10:44 7,4 C 7,2 C 6,7 C 91 % 1012,2 hPa 0,0 l/m 0 min 0 min 44 W/m 29,0 km/h (5 Bft) 100,00 %
29.11.2018 10:46 7,4 C 7,2 C 6,7 C 91 % 1012,2 hPa 0,0 l/m 0 min 0 min 44 W/m 25,7 km/h (4 Bft) 100,00 %
29.11.2018 10:48 7,4 C 7,2 C 6,7 C 91 % 1012,4 hPa 0,0 l/m 0 min 0 min 44 W/m 32,2 km/h (5 Bft) 100,00 %
29.11.2018 10:50 7,4 C 7,2 C 6,7 C 91 % 1012,4 hPa 0,0 l/m 0 min 0 min 44 W/m 45,1 km/h (6 Bft) 100,00 %
29.11.2018 10:52 7,4 C 7,2 C 6,7 C 91 % 1012,5 hPa 0,0 l/m 0 min 0 min 42 W/m 25,7 km/h (4 Bft) 100,00 %
29.11.2018 10:54 7,4 C 6,7 C 6,7 C 91 % 1012,4 hPa 0,0 l/m 0 min 0 min 40 W/m 41,8 km/h (6 Bft) 95,74 %
29.11.2018 10:56 7,4 C 6,7 C 6,1 C 91 % 1012,4 hPa 0,0 l/m 0 min 0 min 40 W/m 25,7 km/h (4 Bft) 95,74 %
29.11.2018 10:58 7,4 C 6,7 C 6,1 C 91 % 1012,4 hPa 0,0 l/m 0 min 0 min 40 W/m 25,7 km/h (4 Bft) 98,11 %
29.11.2018 11:00 7,4 C 6,7 C 6,1 C 91 % 1012,3 hPa 0,0 l/m 0 min 2 min 40 W/m 29,0 km/h (5 Bft) 95,74 %
29.11.2018 11:02 7,4 C 6,7 C 6,1 C 91 % 1012,1 hPa 0,0 l/m 0 min 2 min 42 W/m 35,4 km/h (5 Bft) 97,87 %
29.11.2018 11:04 7,3 C 6,7 C 6,1 C 91 % 1012,1 hPa 0,0 l/m 0 min 2 min 44 W/m 41,8 km/h (6 Bft) 97,83 %
29.11.2018 11:06 7,3 C 6,7 C 6,1 C 92 % 1012,2 hPa 0,0 l/m 0 min 0 min 46 W/m 29,0 km/h (5 Bft) 98,00 %
29.11.2018 11:08 7,3 C 6,7 C 6,1 C 92 % 1012,2 hPa 0,0 l/m 0 min 2 min 48 W/m 32,2 km/h (5 Bft) 93,62 %
29.11.2018 11:10 7,3 C 6,7 C 6,1 C 92 % 1012,1 hPa 0,0 l/m 0 min 2 min 49 W/m 29,0 km/h (5 Bft) 95,74 %
29.11.2018 11:12 7,3 C 6,7 C 6,1 C 92 % 1012,0 hPa 0,0 l/m 0 min 2 min 48 W/m 29,0 km/h (5 Bft) 95,74 %
29.11.2018 11:14 7,3 C 6,7 C 6,1 C 92 % 1011,8 hPa 0,0 l/m 0 min 2 min 45 W/m 25,7 km/h (4 Bft) 95,65 %
29.11.2018 11:16 7,3 C 6,1 C 6,1 C 92 % 1011,9 hPa 0,0 l/m 0 min 2 min 42 W/m 29,0 km/h (5 Bft) 93,62 %
29.11.2018 11:18 7,3 C 6,1 C 5,6 C 92 % 1011,9 hPa 0,0 l/m 0 min 2 min 40 W/m 25,7 km/h (4 Bft) 93,62 %
29.11.2018 11:20 7,3 C 6,1 C 5,6 C 92 % 1012,1 hPa 0,0 l/m 0 min 2 min 39 W/m 35,4 km/h (5 Bft) 95,92 %
29.11.2018 11:22 7,3 C 6,1 C 5,6 C 92 % 1011,9 hPa 0,0 l/m 0 min 2 min 40 W/m 41,8 km/h (6 Bft) 95,74 %
29.11.2018 11:24 7,3 C 6,1 C 5,6 C 92 % 1011,8 hPa 0,0 l/m 0 min 2 min 42 W/m 29,0 km/h (5 Bft) 91,49 %
29.11.2018 11:26 7,3 C 6,1 C 5,6 C 92 % 1011,7 hPa 0,0 l/m 0 min 2 min 44 W/m 25,7 km/h (4 Bft) 95,74 %
29.11.2018 11:28 7,2 C 6,1 C 5,6 C 92 % 1011,6 hPa 0,2 l/m 0 min 2 min 44 W/m 29,0 km/h (5 Bft) 95,74 %
29.11.2018 11:30 7,2 C 6,1 C 5,6 C 93 % 1011,6 hPa 0,0 l/m 0 min 2 min 46 W/m 48,3 km/h (6 Bft) 95,65 %
29.11.2018 11:32 7,2 C 6,1 C 5,6 C 93 % 1011,3 hPa 0,0 l/m 0 min 2 min 47 W/m 45,1 km/h (6 Bft) 95,74 %
29.11.2018 11:34 7,2 C 6,1 C 5,6 C 93 % 1011,2 hPa 0,0 l/m 0 min 2 min 46 W/m 38,6 km/h (5 Bft) 97,14 %
29.11.2018 11:36 7,2 C 6,1 C 5,6 C 93 % 1011,3 hPa 0,0 l/m 0 min 2 min 44 W/m 38,6 km/h (5 Bft) 93,22 %
29.11.2018 11:38 7,2 C 6,1 C 5,6 C 93 % 1011,3 hPa 0,0 l/m 0 min 2 min 42 W/m 25,7 km/h (4 Bft) 91,43 %
29.11.2018 11:40 7,1 C 6,1 C 5,6 C 93 % 1011,3 hPa 0,0 l/m 0 min 2 min 41 W/m 35,4 km/h (5 Bft) 97,87 %
29.11.2018 11:42 7,1 C 6,1 C 5,6 C 93 % 1011,2 hPa 0,0 l/m 0 min 2 min 40 W/m 22,5 km/h (4 Bft) 97,87 %
29.11.2018 11:44 7,2 C 6,1 C 5,6 C 93 % 1011,2 hPa 0,0 l/m 0 min 2 min 37 W/m 25,7 km/h (4 Bft) 95,74 %
29.11.2018 11:46 7,2 C 6,1 C 5,6 C 93 % 1011,2 hPa 0,0 l/m 0 min 2 min 34 W/m 32,2 km/h (5 Bft) 93,48 %
29.11.2018 11:48 7,2 C 6,1 C 5,6 C 93 % 1011,1 hPa 0,0 l/m 0 min 2 min 33 W/m 32,2 km/h (5 Bft) 94,55 %
29.11.2018 11:50 7,2 C 6,1 C 5,6 C 93 % 1011,1 hPa 0,0 l/m 0 min 2 min 32 W/m 29,0 km/h (5 Bft) 97,83 %
29.11.2018 11:52 7,2 C 6,1 C 5,6 C 94 % 1011,3 hPa 0,0 l/m 0 min 2 min 29 W/m 22,5 km/h (4 Bft) 96,00 %
29.11.2018 11:54 7,2 C 6,1 C 5,6 C 94 % 1011,4 hPa 0,0 l/m 0 min 2 min 28 W/m 25,7 km/h (4 Bft) 95,74 %
29.11.2018 11:56 7,2 C 6,1 C 5,6 C 94 % 1011,4 hPa 0,0 l/m 0 min 2 min 27 W/m 35,4 km/h (5 Bft) 95,74 %
29.11.2018 11:58 7,2 C 6,1 C 5,6 C 94 % 1011,8 hPa 0,2 l/m 0 min 2 min 26 W/m 22,5 km/h (4 Bft) 93,62 %
29.11.2018 12:00 7,2 C 6,1 C 5,6 C 94 % 1011,8 hPa 0,0 l/m 0 min 2 min 26 W/m 22,5 km/h (4 Bft) 93,48 %
29.11.2018 12:02 7,2 C 6,1 C 5,6 C 94 % 1011,9 hPa 0,0 l/m 0 min 2 min 26 W/m 29,0 km/h (5 Bft) 97,30 %
29.11.2018 12:04 7,2 C 6,1 C 5,6 C 94 % 1011,8 hPa 0,0 l/m 0 min 2 min 25 W/m 32,2 km/h (5 Bft) 97,87 %
29.11.2018 12:08 7,1 C 6,1 C 5,6 C 94 % 1011,7 hPa 0,0 l/m 0 min 4 min 25 W/m 35,4 km/h (5 Bft) 96,77 %
29.11.2018 12:10 7,1 C 6,1 C 5,6 C 94 % 1011,4 hPa 0,0 l/m 0 min 2 min 26 W/m 25,7 km/h (4 Bft) 97,87 %
29.11.2018 12:12 7,1 C 6,1 C 5,6 C 94 % 1011,4 hPa 0,0 l/m 0 min 2 min 28 W/m 32,2 km/h (5 Bft) 93,62 %
29.11.2018 12:14 7,1 C 5,6 C 5,6 C 94 % 1011,2 hPa 0,0 l/m 0 min 2 min 28 W/m 38,6 km/h (5 Bft) 97,87 %
29.11.2018 12:16 7,0 C 5,6 C 5,6 C 94 % 1011,3 hPa 0,0 l/m 0 min 0 min 26 W/m 45,1 km/h (6 Bft) 97,87 %
29.11.2018 12:18 7,0 C 5,6 C 5,6 C 94 % 1011,3 hPa 0,0 l/m 0 min 2 min 24 W/m 38,6 km/h (5 Bft) 97,87 %
29.11.2018 12:20 7,0 C 5,6 C 5,6 C 94 % 1011,3 hPa 0,0 l/m 0 min 0 min 21 W/m 29,0 km/h (5 Bft) 96,30 %
29.11.2018 12:22 7,0 C 5,6 C 5,6 C 94 % 1011,4 hPa 0,0 l/m 0 min 2 min 21 W/m 29,0 km/h (5 Bft) 95,74 %
29.11.2018 12:24 6,9 C 5,6 C 5,6 C 94 % 1011,5 hPa 0,0 l/m 0 min 2 min 21 W/m 32,2 km/h (5 Bft) 97,96 %
29.11.2018 12:26 6,9 C 5,6 C 5,6 C 94 % 1011,4 hPa 0,0 l/m 0 min 2 min 21 W/m 29,0 km/h (5 Bft) 94,59 %
29.11.2018 12:28 6,9 C 5,6 C 5,6 C 94 % 1011,4 hPa 0,0 l/m 0 min 2 min 23 W/m 35,4 km/h (5 Bft) 97,87 %
29.11.2018 12:30 6,9 C 5,6 C 5,6 C 94 % 1011,1 hPa 0,0 l/m 0 min 2 min 25 W/m 29,0 km/h (5 Bft) 95,74 %
29.11.2018 12:32 6,9 C 5,6 C 5,6 C 94 % 1010,6 hPa 0,2 l/m 0 min 2 min 25 W/m 32,2 km/h (5 Bft) 97,83 %
29.11.2018 12:34 6,9 C 5,6 C 5,6 C 94 % 1010,1 hPa 0,0 l/m 0 min 2 min 25 W/m 41,8 km/h (6 Bft) 97,87 %
29.11.2018 12:36 6,9 C 5,6 C 5,6 C 94 % 1009,7 hPa 0,0 l/m 0 min 2 min 22 W/m 35,4 km/h (5 Bft) 96,61 %
29.11.2018 12:38 6,9 C 5,6 C 5,0 C 94 % 1009,6 hPa 0,0 l/m 0 min 2 min 19 W/m 38,6 km/h (5 Bft) 97,14 %
29.11.2018 12:40 6,8 C 5,6 C 5,0 C 94 % 1009,5 hPa 0,2 l/m 0 min 2 min 16 W/m 57,9 km/h (7 Bft) 97,87 %
29.11.2018 12:42 6,8 C 5,6 C 5,0 C 94 % 1009,1 hPa 0,0 l/m 0 min 2 min 16 W/m 41,8 km/h (6 Bft) 97,87 %
29.11.2018 12:44 6,8 C 5,6 C 5,0 C 95 % 1008,9 hPa 0,0 l/m 0 min 2 min 17 W/m 48,3 km/h (6 Bft) 100,00 %
29.11.2018 12:46 6,8 C 5,6 C 5,0 C 95 % 1008,9 hPa 0,0 l/m 0 min 2 min 18 W/m 38,6 km/h (5 Bft) 100,00 %
29.11.2018 12:48 6,8 C 5,6 C 5,0 C 95 % 1008,9 hPa 0,0 l/m 0 min 0 min 20 W/m 45,1 km/h (6 Bft) 100,00 %
29.11.2018 12:50 6,8 C 5,6 C 5,0 C 95 % 1008,7 hPa 0,0 l/m 0 min 0 min 23 W/m 41,8 km/h (6 Bft) 100,00 %
29.11.2018 12:52 6,8 C 5,6 C 5,0 C 95 % 1008,5 hPa 0,0 l/m 0 min 0 min 25 W/m 29,0 km/h (5 Bft) 97,96 %
29.11.2018 12:54 6,8 C 5,6 C 5,6 C 95 % 1008,3 hPa 0,0 l/m 0 min 0 min 26 W/m 35,4 km/h (5 Bft) 100,00 %
29.11.2018 12:56 6,8 C 6,1 C 5,6 C 95 % 1008,4 hPa 0,0 l/m 0 min 0 min 28 W/m 41,8 km/h (6 Bft) 100,00 %
29.11.2018 12:58 6,8 C 6,1 C 5,6 C 95 % 1008,3 hPa 0,0 l/m 0 min 0 min 28 W/m 51,5 km/h (7 Bft) 100,00 %
29.11.2018 13:00 6,8 C 6,1 C 5,6 C 95 % 1008,4 hPa 0,0 l/m 0 min 0 min 28 W/m 38,6 km/h (5 Bft) 100,00 %
29.11.2018 13:02 6,8 C 6,1 C 5,6 C 95 % 1008,6 hPa 0,0 l/m 0 min 0 min 29 W/m 45,1 km/h (6 Bft) 100,00 %
29.11.2018 13:04 6,9 C 6,1 C 5,6 C 95 % 1008,6 hPa 0,0 l/m 0 min 0 min 30 W/m 51,5 km/h (7 Bft) 100,00 %
29.11.2018 13:06 6,9 C 6,1 C 5,6 C 95 % 1008,6 hPa 0,0 l/m 0 min 0 min 31 W/m 35,4 km/h (5 Bft) 100,00 %
29.11.2018 13:08 7,0 C 6,1 C 5,6 C 95 % 1008,8 hPa 0,0 l/m 0 min 0 min 32 W/m 22,5 km/h (4 Bft) 100,00 %
29.11.2018 13:10 7,0 C 6,1 C 5,6 C 95 % 1008,7 hPa 0,0 l/m 0 min 0 min 32 W/m 35,4 km/h (5 Bft) 100,00 %
29.11.2018 13:12 7,1 C 6,1 C 5,6 C 95 % 1009,1 hPa 0,0 l/m 0 min 0 min 33 W/m 41,8 km/h (6 Bft) 100,00 %
29.11.2018 13:14 7,1 C 6,1 C 5,6 C 95 % 1009,0 hPa 0,0 l/m 0 min 0 min 36 W/m 41,8 km/h (6 Bft) 100,00 %
29.11.2018 13:16 7,1 C 6,1 C 5,6 C 95 % 1009,3 hPa 0,0 l/m 0 min 0 min 39 W/m 32,2 km/h (5 Bft) 100,00 %
29.11.2018 13:18 7,1 C 6,1 C 5,6 C 95 % 1009,7 hPa 0,0 l/m 0 min 0 min 41 W/m 38,6 km/h (5 Bft) 100,00 %
29.11.2018 13:20 7,1 C 6,7 C 5,6 C 95 % 1009,9 hPa 0,0 l/m 0 min 0 min 42 W/m 29,0 km/h (5 Bft) 100,00 %
29.11.2018 13:22 7,2 C 6,7 C 5,6 C 95 % 1010,1 hPa 0,0 l/m 0 min 0 min 40 W/m 38,6 km/h (5 Bft) 100,00 %
29.11.2018 13:24 7,2 C 6,7 C 5,6 C 95 % 1010,3 hPa 0,0 l/m 0 min 0 min 40 W/m 32,2 km/h (5 Bft) 100,00 %
29.11.2018 13:26 7,2 C 6,1 C 5,6 C 95 % 1010,1 hPa 0,0 l/m 0 min 0 min 40 W/m 29,0 km/h (5 Bft) 97,87 %
29.11.2018 13:28 7,2 C 6,1 C 5,6 C 95 % 1010,1 hPa 0,0 l/m 0 min 0 min 38 W/m 19,3 km/h (3 Bft) 97,87 %
29.11.2018 13:30 7,2 C 6,1 C 5,6 C 95 % 1010,0 hPa 0,0 l/m 0 min 0 min 38 W/m 32,2 km/h (5 Bft) 95,74 %
29.11.2018 13:32 7,2 C 6,1 C 5,6 C 95 % 1009,8 hPa 0,0 l/m 0 min 2 min 44 W/m 29,0 km/h (5 Bft) 97,83 %
29.11.2018 13:34 7,2 C 6,1 C 5,6 C 95 % 1010,0 hPa 0,0 l/m 0 min 0 min 52 W/m 29,0 km/h (5 Bft) 97,87 %
29.11.2018 13:36 7,2 C 6,1 C 5,6 C 95 % 1010,0 hPa 0,0 l/m 0 min 0 min 52 W/m 29,0 km/h (5 Bft) 96,61 %
29.11.2018 13:38 7,2 C 6,1 C 5,6 C 95 % 1010,1 hPa 0,0 l/m 0 min 0 min 48 W/m 25,7 km/h (4 Bft) 97,62 %
29.11.2018 13:40 7,2 C 6,1 C 5,6 C 95 % 1009,9 hPa 0,0 l/m 0 min 2 min 45 W/m 29,0 km/h (5 Bft) 95,74 %
29.11.2018 13:42 7,2 C 6,1 C 5,6 C 95 % 1010,0 hPa 0,0 l/m 0 min 0 min 42 W/m 29,0 km/h (5 Bft) 95,74 %
29.11.2018 13:44 7,2 C 6,1 C 5,6 C 95 % 1009,8 hPa 0,0 l/m 0 min 2 min 40 W/m 35,4 km/h (5 Bft) 95,74 %
29.11.2018 13:46 7,2 C 6,1 C 5,6 C 95 % 1009,8 hPa 0,0 l/m 0 min 2 min 39 W/m 29,0 km/h (5 Bft) 97,96 %
29.11.2018 13:48 7,2 C 6,1 C 5,6 C 95 % 1009,8 hPa 0,0 l/m 0 min 2 min 37 W/m 25,7 km/h (4 Bft) 97,30 %
29.11.2018 13:50 7,2 C 6,1 C 5,6 C 95 % 1009,9 hPa 0,0 l/m 0 min 2 min 35 W/m 32,2 km/h (5 Bft) 97,87 %
29.11.2018 13:52 7,2 C 6,1 C 5,6 C 95 % 1009,5 hPa 0,0 l/m 0 min 2 min 33 W/m 32,2 km/h (5 Bft) 97,87 %
29.11.2018 13:54 7,2 C 6,1 C 5,6 C 95 % 1009,5 hPa 0,0 l/m 0 min 2 min 32 W/m 38,6 km/h (5 Bft) 97,83 %
29.11.2018 13:56 7,2 C 6,1 C 5,6 C 95 % 1009,3 hPa 0,0 l/m 0 min 2 min 32 W/m 35,4 km/h (5 Bft) 97,87 %
29.11.2018 13:58 7,2 C 6,1 C 5,6 C 95 % 1009,6 hPa 0,0 l/m 0 min 2 min 31 W/m 48,3 km/h (6 Bft) 96,30 %
29.11.2018 14:00 7,2 C 6,1 C 5,6 C 95 % 1009,6 hPa 0,0 l/m 0 min 2 min 30 W/m 32,2 km/h (5 Bft) 97,83 %
29.11.2018 14:02 7,2 C 6,1 C 5,6 C 94 % 1009,4 hPa 0,0 l/m 0 min 2 min 28 W/m 35,4 km/h (5 Bft) 95,74 %
29.11.2018 14:04 7,2 C 6,1 C 5,6 C 94 % 1009,0 hPa 0,0 l/m 0 min 2 min 26 W/m 35,4 km/h (5 Bft) 98,00 %
29.11.2018 14:06 7,2 C 6,1 C 5,6 C 94 % 1008,6 hPa 0,0 l/m 0 min 2 min 25 W/m 38,6 km/h (5 Bft) 97,87 %
29.11.2018 14:08 7,2 C 6,1 C 5,6 C 94 % 1008,5 hPa 0,0 l/m 0 min 2 min 25 W/m 32,2 km/h (5 Bft) 97,87 %
29.11.2018 14:10 7,2 C 6,1 C 5,6 C 94 % 1008,4 hPa 0,0 l/m 0 min 2 min 27 W/m 35,4 km/h (5 Bft) 100,00 %
29.11.2018 14:12 7,2 C 6,1 C 5,6 C 94 % 1008,3 hPa 0,0 l/m 0 min 2 min 28 W/m 29,0 km/h (5 Bft) 100,00 %
29.11.2018 14:14 7,2 C 6,1 C 5,6 C 94 % 1008,3 hPa 0,0 l/m 0 min 0 min 30 W/m 35,4 km/h (5 Bft) 100,00 %
29.11.2018 14:16 7,2 C 6,1 C 5,6 C 94 % 1008,3 hPa 0,0 l/m 0 min 0 min 32 W/m 51,5 km/h (7 Bft) 100,00 %
29.11.2018 14:18 7,2 C 6,1 C 5,6 C 94 % 1008,4 hPa 0,0 l/m 0 min 0 min 33 W/m 32,2 km/h (5 Bft) 97,87 %
29.11.2018 14:20 7,2 C 6,1 C 5,6 C 94 % 1008,7 hPa 0,0 l/m 0 min 0 min 30 W/m 25,7 km/h (4 Bft) 97,87 %
29.11.2018 14:22 7,2 C 6,1 C 5,6 C 94 % 1008,8 hPa 0,0 l/m 0 min 0 min 25 W/m 32,2 km/h (5 Bft) 100,00 %
29.11.2018 14:24 7,2 C 6,1 C 5,6 C 94 % 1008,8 hPa 0,0 l/m 0 min 0 min 22 W/m 29,0 km/h (5 Bft) 95,74 %
29.11.2018 14:26 7,2 C 6,1 C 5,6 C 94 % 1008,8 hPa 0,0 l/m 0 min 0 min 21 W/m 22,5 km/h (4 Bft) 95,74 %
29.11.2018 14:28 7,2 C 6,1 C 5,6 C 94 % 1008,9 hPa 0,0 l/m 0 min 0 min 21 W/m 25,7 km/h (4 Bft) 97,87 %
29.11.2018 14:30 7,2 C 6,1 C 5,6 C 94 % 1008,9 hPa 0,0 l/m 0 min 0 min 22 W/m 22,5 km/h (4 Bft) 96,00 %
29.11.2018 14:32 7,2 C 6,1 C 5,6 C 94 % 1008,7 hPa 0,0 l/m 0 min 2 min 24 W/m 29,0 km/h (5 Bft) 97,30 %
29.11.2018 14:34 7,2 C 6,1 C 5,6 C 94 % 1008,6 hPa 0,0 l/m 0 min 2 min 24 W/m 22,5 km/h (4 Bft) 95,74 %
29.11.2018 14:36 7,2 C 6,1 C 5,6 C 94 % 1008,4 hPa 0,0 l/m 0 min 0 min 22 W/m 35,4 km/h (5 Bft) 98,28 %
29.11.2018 14:38 7,2 C 6,1 C 5,6 C 94 % 1008,3 hPa 0,0 l/m 0 min 0 min 21 W/m 38,6 km/h (5 Bft) 97,22 %
29.11.2018 14:40 7,2 C 6,1 C 5,6 C 94 % 1008,2 hPa 0,0 l/m 0 min 2 min 21 W/m 25,7 km/h (4 Bft) 95,65 %
29.11.2018 14:42 7,2 C 6,1 C 5,6 C 94 % 1008,1 hPa 0,0 l/m 0 min 2 min 24 W/m 25,7 km/h (4 Bft) 95,74 %
29.11.2018 14:44 7,3 C 6,1 C 5,6 C 94 % 1008,0 hPa 0,0 l/m 0 min 0 min 25 W/m 35,4 km/h (5 Bft) 95,74 %
29.11.2018 14:46 7,2 C 6,1 C 5,6 C 94 % 1007,8 hPa 0,0 l/m 0 min 0 min 24 W/m 35,4 km/h (5 Bft) 95,74 %
29.11.2018 14:48 7,3 C 6,1 C 5,6 C 94 % 1008,0 hPa 0,0 l/m 0 min 0 min 22 W/m 35,4 km/h (5 Bft) 95,74 %
29.11.2018 14:50 7,3 C 6,1 C 5,6 C 94 % 1007,8 hPa 0,0 l/m 0 min 2 min 21 W/m 35,4 km/h (5 Bft) 95,74 %
29.11.2018 14:52 7,3 C 6,1 C 5,6 C 94 % 1007,8 hPa 0,0 l/m 0 min 0 min 21 W/m 35,4 km/h (5 Bft) 93,48 %
29.11.2018 14:54 7,3 C 6,1 C 5,6 C 94 % 1007,7 hPa 0,0 l/m 0 min 0 min 22 W/m 32,2 km/h (5 Bft) 95,74 %
29.11.2018 14:56 7,3 C 6,7 C 5,6 C 94 % 1007,9 hPa 0,0 l/m 0 min 0 min 23 W/m 35,4 km/h (5 Bft) 95,74 %
29.11.2018 14:58 7,3 C 6,7 C 6,1 C 94 % 1007,8 hPa 0,0 l/m 0 min 0 min 23 W/m 35,4 km/h (5 Bft) 95,74 %
29.11.2018 15:00 7,4 C 6,7 C 6,1 C 94 % 1007,7 hPa 0,0 l/m 0 min 0 min 23 W/m 32,2 km/h (5 Bft) 94,00 %
29.11.2018 15:02 7,4 C 6,7 C 6,1 C 94 % 1007,6 hPa 0,0 l/m 0 min 0 min 23 W/m 38,6 km/h (5 Bft) 95,65 %
29.11.2018 15:04 7,4 C 6,7 C 6,1 C 93 % 1007,7 hPa 0,0 l/m 0 min 0 min 21 W/m 19,3 km/h (3 Bft) 93,62 %
29.11.2018 15:06 7,4 C 6,7 C 6,1 C 93 % 1007,3 hPa 0,0 l/m 0 min 0 min 23 W/m 38,6 km/h (5 Bft) 95,74 %
29.11.2018 15:08 7,4 C 6,7 C 6,1 C 93 % 1007,3 hPa 0,0 l/m 0 min 0 min 23 W/m 32,2 km/h (5 Bft) 95,74 %
29.11.2018 15:10 7,4 C 6,7 C 6,1 C 93 % 1007,8 hPa 0,0 l/m 0 min 0 min 23 W/m 25,7 km/h (4 Bft) 95,74 %
29.11.2018 15:12 7,5 C 6,7 C 6,1 C 93 % 1007,5 hPa 0,0 l/m 0 min 0 min 24 W/m 29,0 km/h (5 Bft) 95,74 %
29.11.2018 15:14 7,5 C 6,7 C 6,1 C 93 % 1007,7 hPa 0,0 l/m 0 min 0 min 25 W/m 29,0 km/h (5 Bft) 95,65 %
29.11.2018 15:16 7,5 C 6,7 C 6,1 C 93 % 1007,6 hPa 0,0 l/m 0 min 0 min 26 W/m 25,7 km/h (4 Bft) 95,74 %
29.11.2018 15:18 7,5 C 6,7 C 6,1 C 93 % 1007,5 hPa 0,0 l/m 0 min 0 min 29 W/m 29,0 km/h (5 Bft) 95,35 %
29.11.2018 15:20 7,5 C 6,7 C 6,1 C 93 % 1007,7 hPa 0,0 l/m 0 min 0 min 34 W/m 29,0 km/h (5 Bft) 97,96 %
29.11.2018 15:22 7,5 C 6,7 C 6,1 C 93 % 1007,9 hPa 0,0 l/m 0 min 0 min 42 W/m 29,0 km/h (5 Bft) 95,65 %
29.11.2018 15:24 7,6 C 6,7 C 6,1 C 92 % 1008,0 hPa 0,0 l/m 0 min 0 min 48 W/m 29,0 km/h (5 Bft) 95,74 %
29.11.2018 15:26 7,6 C 6,7 C 6,1 C 92 % 1008,3 hPa 0,0 l/m 0 min 0 min 53 W/m 35,4 km/h (5 Bft) 95,74 %
29.11.2018 15:28 7,6 C 6,7 C 6,1 C 92 % 1008,0 hPa 0,0 l/m 0 min 0 min 54 W/m 29,0 km/h (5 Bft) 97,96 %
29.11.2018 15:30 7,6 C 6,7 C 6,1 C 92 % 1008,0 hPa 0,0 l/m 0 min 0 min 51 W/m 45,1 km/h (6 Bft) 97,87 %
29.11.2018 15:32 7,6 C 6,7 C 6,1 C 92 % 1008,2 hPa 0,0 l/m 0 min 0 min 45 W/m 25,7 km/h (4 Bft) 97,87 %
29.11.2018 15:34 7,6 C 6,7 C 6,1 C 92 % 1008,1 hPa 0,0 l/m 0 min 0 min 42 W/m 41,8 km/h (6 Bft) 98,11 %
29.11.2018 15:36 7,6 C 6,7 C 6,1 C 92 % 1008,0 hPa 0,0 l/m 0 min 0 min 40 W/m 25,7 km/h (4 Bft) 95,74 %
29.11.2018 15:38 7,6 C 6,7 C 6,1 C 92 % 1008,1 hPa 0,0 l/m 0 min 0 min 36 W/m 25,7 km/h (4 Bft) 100,00 %
29.11.2018 15:40 7,6 C 6,7 C 6,1 C 92 % 1008,0 hPa 0,0 l/m 0 min 0 min 32 W/m 22,5 km/h (4 Bft) 100,00 %
29.11.2018 15:42 7,6 C 6,7 C 6,1 C 91 % 1008,0 hPa 0,0 l/m 0 min 0 min 29 W/m 35,4 km/h (5 Bft) 97,83 %
29.11.2018 15:44 7,6 C 6,7 C 6,1 C 91 % 1008,0 hPa 0,0 l/m 0 min 0 min 28 W/m 32,2 km/h (5 Bft) 97,62 %
29.11.2018 15:46 7,6 C 6,7 C 6,1 C 91 % 1007,9 hPa 0,0 l/m 0 min 0 min 28 W/m 25,7 km/h (4 Bft) 100,00 %
29.11.2018 15:48 7,6 C 6,7 C 6,1 C 91 % 1007,9 hPa 0,0 l/m 0 min 0 min 26 W/m 35,4 km/h (5 Bft) 100,00 %
29.11.2018 15:50 7,6 C 6,7 C 6,1 C 91 % 1008,0 hPa 0,0 l/m 0 min 0 min 25 W/m 29,0 km/h (5 Bft) 95,45 %
29.11.2018 15:52 7,6 C 6,7 C 6,1 C 91 % 1008,0 hPa 0,0 l/m 0 min 0 min 25 W/m 29,0 km/h (5 Bft) 100,00 %
29.11.2018 15:54 7,6 C 7,2 C 6,1 C 91 % 1008,0 hPa 0,0 l/m 0 min 0 min 25 W/m 45,1 km/h (6 Bft) 100,00 %
29.11.2018 15:56 7,6 C 7,2 C 6,1 C 91 % 1007,9 hPa 0,0 l/m 0 min 0 min 25 W/m 35,4 km/h (5 Bft) 100,00 %
29.11.2018 15:58 7,6 C 7,2 C 6,1 C 91 % 1008,0 hPa 0,0 l/m 0 min 0 min 21 W/m 32,2 km/h (5 Bft) 100,00 %
29.11.2018 16:00 7,6 C 7,2 C 6,1 C 91 % 1008,0 hPa 0,0 l/m 0 min 0 min 19 W/m 29,0 km/h (5 Bft) 97,87 %
29.11.2018 16:02 7,6 C 7,2 C 6,1 C 91 % 1008,0 hPa 0,0 l/m 0 min 0 min 17 W/m 29,0 km/h (5 Bft) 97,87 %
29.11.2018 16:04 7,6 C 7,2 C 6,1 C 91 % 1008,0 hPa 0,0 l/m 0 min 0 min 15 W/m 25,7 km/h (4 Bft) 95,74 %
29.11.2018 16:06 7,6 C 7,2 C 6,1 C 91 % 1008,0 hPa 0,0 l/m 0 min 0 min 12 W/m 22,5 km/h (4 Bft) 97,87 %
29.11.2018 16:08 7,6 C 7,2 C 6,1 C 91 % 1008,0 hPa 0,0 l/m 0 min 0 min 12 W/m 32,2 km/h (5 Bft) 97,83 %
29.11.2018 16:10 7,6 C 7,2 C 6,1 C 91 % 1008,1 hPa 0,0 l/m 0 min 0 min 12 W/m 25,7 km/h (4 Bft) 98,00 %
29.11.2018 16:12 7,6 C 7,2 C 6,1 C 91 % 1008,1 hPa 0,0 l/m 0 min 0 min 11 W/m 22,5 km/h (4 Bft) 97,87 %
29.11.2018 16:14 7,6 C 7,2 C 6,1 C 91 % 1008,0 hPa 0,0 l/m 0 min 0 min 8 W/m 22,5 km/h (4 Bft) 97,87 %
29.11.2018 16:16 7,6 C 7,2 C 6,1 C 91 % 1008,0 hPa 0,0 l/m 0 min 0 min 6 W/m 22,5 km/h (4 Bft) 97,87 %
29.11.2018 16:18 7,6 C 7,2 C 6,1 C 91 % 1008,0 hPa 0,0 l/m 0 min 0 min 5 W/m 25,7 km/h (4 Bft) 97,83 %
29.11.2018 16:20 7,6 C 7,2 C 6,1 C 91 % 1008,0 hPa 0,0 l/m 0 min 0 min 5 W/m 22,5 km/h (4 Bft) 95,74 %
29.11.2018 16:22 7,6 C 7,2 C 6,1 C 91 % 1007,9 hPa 0,0 l/m 0 min 0 min 5 W/m 25,7 km/h (4 Bft) 97,87 %
29.11.2018 16:24 7,6 C 7,2 C 6,1 C 91 % 1007,8 hPa 0,0 l/m 0 min 0 min 0 W/m 32,2 km/h (5 Bft) 97,87 %
29.11.2018 16:26 7,6 C 7,2 C 6,1 C 91 % 1007,7 hPa 0,0 l/m 0 min 0 min 0 W/m 29,0 km/h (5 Bft) 97,87 %
29.11.2018 16:28 7,6 C 7,2 C 6,1 C 90 % 1007,7 hPa 0,0 l/m 0 min 0 min 0 W/m 22,5 km/h (4 Bft) 93,62 %
29.11.2018 16:30 7,6 C 7,2 C 6,1 C 90 % 1007,7 hPa 0,0 l/m 0 min 0 min 0 W/m 32,2 km/h (5 Bft) 95,65 %
29.11.2018 16:32 7,6 C 7,2 C 6,1 C 90 % 1007,8 hPa 0,0 l/m 0 min 0 min 0 W/m 29,0 km/h (5 Bft) 97,87 %
29.11.2018 16:34 7,6 C 7,2 C 6,1 C 90 % 1007,8 hPa 0,0 l/m 0 min 0 min 0 W/m 29,0 km/h (5 Bft) 97,87 %
29.11.2018 16:36 7,6 C 7,2 C 6,1 C 90 % 1007,7 hPa 0,0 l/m 0 min 0 min 0 W/m 29,0 km/h (5 Bft) 97,87 %
29.11.2018 16:38 7,6 C 7,2 C 6,1 C 90 % 1007,7 hPa 0,0 l/m 0 min 0 min 0 W/m 25,7 km/h (4 Bft) 95,74 %
29.11.2018 16:40 7,6 C 7,2 C 6,1 C 90 % 1007,6 hPa 0,0 l/m 0 min 0 min 0 W/m 29,0 km/h (5 Bft) 97,87 %
29.11.2018 16:42 7,7 C 7,2 C 6,1 C 90 % 1007,6 hPa 0,0 l/m 0 min 0 min 0 W/m 35,4 km/h (5 Bft) 97,87 %
29.11.2018 16:44 7,7 C 7,2 C 6,1 C 90 % 1007,5 hPa 0,0 l/m 0 min 0 min 0 W/m 32,2 km/h (5 Bft) 100,00 %
29.11.2018 16:46 7,7 C 7,2 C 6,1 C 90 % 1007,5 hPa 0,0 l/m 0 min 0 min 0 W/m 19,3 km/h (3 Bft) 100,00 %
29.11.2018 16:48 7,7 C 7,2 C 6,1 C 90 % 1007,4 hPa 0,0 l/m 0 min 0 min 0 W/m 29,0 km/h (5 Bft) 100,00 %
29.11.2018 16:50 7,7 C 7,2 C 6,1 C 90 % 1007,3 hPa 0,0 l/m 0 min 0 min 0 W/m 29,0 km/h (5 Bft) 97,14 %
29.11.2018 16:52 7,7 C 7,2 C 6,1 C 90 % 1007,3 hPa 0,0 l/m 0 min 0 min 0 W/m 25,7 km/h (4 Bft) 100,00 %
29.11.2018 16:54 7,7 C 7,2 C 6,1 C 90 % 1007,3 hPa 0,0 l/m 0 min 0 min 0 W/m 41,8 km/h (6 Bft) 100,00 %
29.11.2018 16:56 7,7 C 7,2 C 6,1 C 89 % 1007,3 hPa 0,0 l/m 0 min 0 min 0 W/m 35,4 km/h (5 Bft) 100,00 %
29.11.2018 16:58 7,7 C 7,2 C 6,1 C 89 % 1007,4 hPa 0,0 l/m 0 min 0 min 0 W/m 32,2 km/h (5 Bft) 100,00 %
29.11.2018 17:00 7,7 C 7,2 C 6,1 C 89 % 1007,5 hPa 0,0 l/m 0 min 0 min 0 W/m 35,4 km/h (5 Bft) 100,00 %
29.11.2018 17:02 7,7 C 7,2 C 6,1 C 89 % 1007,5 hPa 0,0 l/m 0 min 0 min 0 W/m 35,4 km/h (5 Bft) 98,00 %
29.11.2018 17:04 7,8 C 7,2 C 6,1 C 89 % 1007,4 hPa 0,0 l/m 0 min 0 min 0 W/m 32,2 km/h (5 Bft) 100,00 %
29.11.2018 17:06 7,8 C 7,2 C 6,1 C 89 % 1007,4 hPa 0,0 l/m 0 min 0 min 0 W/m 29,0 km/h (5 Bft) 100,00 %
29.11.2018 17:08 7,8 C 7,2 C 6,1 C 89 % 1007,4 hPa 0,0 l/m 0 min 0 min 0 W/m 38,6 km/h (5 Bft) 100,00 %
29.11.2018 17:10 7,8 C 7,2 C 6,1 C 89 % 1007,4 hPa 0,0 l/m 0 min 0 min 0 W/m 29,0 km/h (5 Bft) 100,00 %
29.11.2018 17:12 7,8 C 7,2 C 6,1 C 89 % 1007,4 hPa 0,0 l/m 0 min 0 min 0 W/m 35,4 km/h (5 Bft) 100,00 %
29.11.2018 17:14 7,8 C 7,2 C 6,1 C 89 % 1007,3 hPa 0,0 l/m 0 min 0 min 0 W/m 35,4 km/h (5 Bft) 100,00 %
29.11.2018 17:16 7,8 C 7,2 C 6,1 C 89 % 1007,4 hPa 0,0 l/m 0 min 0 min 0 W/m 29,0 km/h (5 Bft) 100,00 %
29.11.2018 17:18 7,8 C 7,2 C 6,1 C 89 % 1007,5 hPa 0,0 l/m 0 min 0 min 0 W/m 25,7 km/h (4 Bft) 100,00 %
29.11.2018 17:20 7,8 C 7,2 C 6,1 C 88 % 1007,3 hPa 0,0 l/m 0 min 0 min 0 W/m 29,0 km/h (5 Bft) 100,00 %
29.11.2018 17:22 7,9 C 7,2 C 6,1 C 88 % 1007,4 hPa 0,0 l/m 0 min 0 min 0 W/m 32,2 km/h (5 Bft) 100,00 %
29.11.2018 17:24 7,9 C 7,2 C 6,1 C 88 % 1007,3 hPa 0,0 l/m 0 min 0 min 0 W/m 25,7 km/h (4 Bft) 100,00 %
29.11.2018 17:26 7,9 C 7,2 C 6,1 C 88 % 1007,3 hPa 0,0 l/m 0 min 0 min 0 W/m 32,2 km/h (5 Bft) 97,87 %
29.11.2018 17:28 7,9 C 7,2 C 6,1 C 88 % 1007,3 hPa 0,0 l/m 0 min 0 min 0 W/m 25,7 km/h (4 Bft) 97,96 %
29.11.2018 17:30 7,9 C 7,2 C 6,1 C 88 % 1007,3 hPa 0,0 l/m 0 min 0 min 0 W/m 22,5 km/h (4 Bft) 97,87 %
29.11.2018 17:32 7,9 C 7,2 C 6,1 C 88 % 1007,5 hPa 0,0 l/m 0 min 0 min 0 W/m 29,0 km/h (5 Bft) 100,00 %
29.11.2018 17:34 7,9 C 7,2 C 6,1 C 88 % 1007,5 hPa 0,0 l/m 0 min 0 min 0 W/m 32,2 km/h (5 Bft) 97,87 %
29.11.2018 17:36 7,9 C 7,2 C 6,1 C 88 % 1007,4 hPa 0,0 l/m 0 min 0 min 0 W/m 22,5 km/h (4 Bft) 97,87 %
29.11.2018 17:38 7,9 C 7,2 C 6,1 C 88 % 1007,4 hPa 0,0 l/m 0 min 0 min 0 W/m 25,7 km/h (4 Bft) 97,87 %
29.11.2018 17:40 7,9 C 7,2 C 6,1 C 88 % 1007,4 hPa 0,0 l/m 0 min 0 min 0 W/m 35,4 km/h (5 Bft) 97,87 %
29.11.2018 17:42 7,9 C 7,2 C 6,1 C 88 % 1007,5 hPa 0,0 l/m 0 min 0 min 0 W/m 32,2 km/h (5 Bft) 100,00 %
29.11.2018 17:44 7,9 C 7,2 C 6,1 C 88 % 1007,5 hPa 0,0 l/m 0 min 0 min 0 W/m 32,2 km/h (5 Bft) 95,74 %
29.11.2018 17:46 7,9 C 7,2 C 6,1 C 88 % 1007,6 hPa 0,0 l/m 0 min 0 min 0 W/m 29,0 km/h (5 Bft) 95,74 %
29.11.2018 17:48 7,9 C 7,2 C 6,1 C 88 % 1007,7 hPa 0,0 l/m 0 min 0 min 0 W/m 29,0 km/h (5 Bft) 93,48 %
29.11.2018 17:50 7,9 C 7,2 C 6,1 C 88 % 1007,7 hPa 0,0 l/m 0 min 0 min 0 W/m 29,0 km/h (5 Bft) 95,74 %
29.11.2018 17:52 7,9 C 7,2 C 6,1 C 88 % 1007,8 hPa 0,0 l/m 0 min 0 min 0 W/m 25,7 km/h (4 Bft) 95,74 %
29.11.2018 17:54 7,9 C 7,2 C 6,1 C 88 % 1007,8 hPa 0,0 l/m 0 min 0 min 0 W/m 19,3 km/h (3 Bft) 95,74 %
29.11.2018 17:56 7,9 C 7,2 C 6,1 C 88 % 1007,8 hPa 0,0 l/m 0 min 0 min 0 W/m 19,3 km/h (3 Bft) 95,74 %
29.11.2018 17:58 7,9 C 7,2 C 6,1 C 88 % 1007,9 hPa 0,0 l/m 0 min 0 min 0 W/m 19,3 km/h (3 Bft) 95,74 %
29.11.2018 18:00 7,9 C 7,2 C 6,1 C 88 % 1007,8 hPa 0,0 l/m 0 min 0 min 0 W/m 19,3 km/h (3 Bft) 95,65 %
29.11.2018 18:02 7,9 C 7,2 C 6,1 C 88 % 1007,8 hPa 0,0 l/m 0 min 0 min 0 W/m 22,5 km/h (4 Bft) 92,86 %
29.11.2018 18:04 7,9 C 7,2 C 6,1 C 88 % 1007,7 hPa 0,0 l/m 0 min 0 min 0 W/m 38,6 km/h (5 Bft) 93,88 %
29.11.2018 18:08 7,9 C 7,2 C 6,1 C 88 % 1007,6 hPa 0,0 l/m 0 min 0 min 0 W/m 35,4 km/h (5 Bft) 95,74 %
29.11.2018 18:10 7,9 C 7,2 C 6,1 C 87 % 1007,6 hPa 0,0 l/m 0 min 0 min 0 W/m 32,2 km/h (5 Bft) 95,74 %
29.11.2018 18:12 7,9 C 7,2 C 6,1 C 87 % 1007,7 hPa 0,0 l/m 0 min 0 min 0 W/m 25,7 km/h (4 Bft) 95,74 %
29.11.2018 18:14 7,9 C 7,2 C 6,1 C 87 % 1007,8 hPa 0,0 l/m 0 min 0 min 0 W/m 19,3 km/h (3 Bft) 95,74 %
29.11.2018 18:16 7,9 C 7,2 C 6,1 C 87 % 1007,8 hPa 0,0 l/m 0 min 0 min 0 W/m 32,2 km/h (5 Bft) 93,62 %
29.11.2018 18:18 7,9 C 7,2 C 6,1 C 87 % 1008,0 hPa 0,0 l/m 0 min 0 min 0 W/m 29,0 km/h (5 Bft) 94,29 %
29.11.2018 18:20 7,9 C 7,2 C 6,1 C 87 % 1007,9 hPa 0,0 l/m 0 min 0 min 0 W/m 29,0 km/h (5 Bft) 96,36 %
29.11.2018 18:22 7,9 C 7,2 C 6,1 C 87 % 1007,9 hPa 0,0 l/m 0 min 0 min 0 W/m 29,0 km/h (5 Bft) 96,00 %
29.11.2018 18:24 7,9 C 7,2 C 6,1 C 87 % 1007,9 hPa 0,0 l/m 0 min 0 min 0 W/m 25,7 km/h (4 Bft) 93,62 %
29.11.2018 18:26 7,9 C 7,2 C 6,1 C 87 % 1007,9 hPa 0,0 l/m 0 min 0 min 0 W/m 29,0 km/h (5 Bft) 95,65 %
29.11.2018 18:28 7,9 C 7,2 C 6,1 C 87 % 1007,9 hPa 0,0 l/m 0 min 0 min 0 W/m 19,3 km/h (3 Bft) 95,83 %
29.11.2018 18:30 7,8 C 7,2 C 6,1 C 87 % 1007,9 hPa 0,0 l/m 0 min 0 min 0 W/m 29,0 km/h (5 Bft) 95,74 %
29.11.2018 18:32 7,8 C 7,2 C 6,1 C 87 % 1007,9 hPa 0,0 l/m 0 min 0 min 0 W/m 32,2 km/h (5 Bft) 93,48 %
29.11.2018 18:34 7,8 C 7,2 C 6,1 C 87 % 1007,9 hPa 0,0 l/m 0 min 0 min 0 W/m 25,7 km/h (4 Bft) 95,74 %
29.11.2018 18:36 7,8 C 7,2 C 6,1 C 87 % 1008,0 hPa 0,0 l/m 0 min 0 min 0 W/m 19,3 km/h (3 Bft) 93,62 %
29.11.2018 18:38 7,8 C 7,2 C 6,7 C 87 % 1008,0 hPa 0,0 l/m 0 min 0 min 0 W/m 25,7 km/h (4 Bft) 93,62 %
29.11.2018 18:40 7,8 C 7,2 C 6,7 C 87 % 1008,1 hPa 0,0 l/m 0 min 0 min 0 W/m 25,7 km/h (4 Bft) 95,74 %
29.11.2018 18:42 7,8 C 7,2 C 6,7 C 87 % 1008,1 hPa 0,0 l/m 0 min 0 min 0 W/m 25,7 km/h (4 Bft) 100,00 %
29.11.2018 18:44 7,8 C 7,2 C 6,7 C 87 % 1008,1 hPa 0,0 l/m 0 min 0 min 0 W/m 25,7 km/h (4 Bft) 97,87 %
29.11.2018 18:46 7,8 C 7,2 C 6,7 C 87 % 1008,1 hPa 0,0 l/m 0 min 0 min 0 W/m 38,6 km/h (5 Bft) 97,83 %
29.11.2018 18:48 7,8 C 7,2 C 6,7 C 87 % 1008,1 hPa 0,0 l/m 0 min 0 min 0 W/m 29,0 km/h (5 Bft) 97,87 %
29.11.2018 18:50 7,8 C 7,2 C 6,7 C 87 % 1008,1 hPa 0,0 l/m 0 min 0 min 0 W/m 32,2 km/h (5 Bft) 95,74 %
29.11.2018 18:52 7,8 C 7,2 C 6,7 C 87 % 1008,2 hPa 0,0 l/m 0 min 0 min 0 W/m 32,2 km/h (5 Bft) 97,87 %
29.11.2018 18:54 7,8 C 7,2 C 6,7 C 87 % 1008,2 hPa 0,0 l/m 0 min 0 min 0 W/m 25,7 km/h (4 Bft) 98,18 %
29.11.2018 18:56 7,8 C 7,2 C 6,7 C 86 % 1008,2 hPa 0,0 l/m 0 min 0 min 0 W/m 22,5 km/h (4 Bft) 97,87 %
29.11.2018 18:58 7,8 C 7,2 C 6,7 C 86 % 1008,3 hPa 0,0 l/m 0 min 0 min 0 W/m 29,0 km/h (5 Bft) 96,00 %
29.11.2018 19:00 7,8 C 7,2 C 6,7 C 86 % 1008,3 hPa 0,0 l/m 0 min 0 min 0 W/m 41,8 km/h (6 Bft) 97,87 %
29.11.2018 19:02 7,8 C 7,2 C 6,7 C 86 % 1008,3 hPa 0,0 l/m 0 min 0 min 0 W/m 25,7 km/h (4 Bft) 95,74 %
29.11.2018 19:04 7,8 C 7,2 C 6,7 C 86 % 1008,4 hPa 0,0 l/m 0 min 0 min 0 W/m 41,8 km/h (6 Bft) 97,87 %
29.11.2018 19:06 7,8 C 7,2 C 6,7 C 86 % 1008,4 hPa 0,0 l/m 0 min 0 min 0 W/m 38,6 km/h (5 Bft) 97,83 %
29.11.2018 19:08 7,9 C 7,2 C 6,7 C 86 % 1008,3 hPa 0,0 l/m 0 min 0 min 0 W/m 35,4 km/h (5 Bft) 97,87 %
29.11.2018 19:10 7,9 C 7,2 C 6,7 C 86 % 1008,4 hPa 0,0 l/m 0 min 0 min 0 W/m 29,0 km/h (5 Bft) 97,14 %
29.11.2018 19:12 7,9 C 7,2 C 6,7 C 86 % 1008,4 hPa 0,0 l/m 0 min 0 min 0 W/m 29,0 km/h (5 Bft) 97,87 %
29.11.2018 19:14 7,9 C 7,2 C 6,7 C 86 % 1008,5 hPa 0,0 l/m 0 min 0 min 0 W/m 32,2 km/h (5 Bft) 96,36 %
29.11.2018 19:16 7,9 C 7,2 C 6,7 C 86 % 1008,4 hPa 0,0 l/m 0 min 0 min 0 W/m 22,5 km/h (4 Bft) 97,87 %
29.11.2018 19:18 7,9 C 7,2 C 6,7 C 86 % 1008,4 hPa 0,0 l/m 0 min 0 min 0 W/m 32,2 km/h (5 Bft) 98,00 %
29.11.2018 19:20 7,9 C 7,2 C 6,7 C 86 % 1008,4 hPa 0,0 l/m 0 min 0 min 0 W/m 25,7 km/h (4 Bft) 97,87 %
29.11.2018 19:22 7,9 C 7,2 C 6,7 C 86 % 1008,4 hPa 0,0 l/m 0 min 0 min 0 W/m 29,0 km/h (5 Bft) 97,87 %
29.11.2018 19:24 7,9 C 7,2 C 6,7 C 86 % 1008,4 hPa 0,0 l/m 0 min 0 min 0 W/m 25,7 km/h (4 Bft) 100,00 %
29.11.2018 19:26 7,9 C 7,2 C 6,7 C 86 % 1008,6 hPa 0,0 l/m 0 min 0 min 0 W/m 25,7 km/h (4 Bft) 100,00 %
29.11.2018 19:28 7,9 C 7,2 C 6,7 C 86 % 1008,5 hPa 0,0 l/m 0 min 0 min 0 W/m 32,2 km/h (5 Bft) 100,00 %
29.11.2018 19:30 7,9 C 7,2 C 6,7 C 86 % 1008,5 hPa 0,0 l/m 0 min 0 min 0 W/m 25,7 km/h (4 Bft) 97,83 %
29.11.2018 19:32 7,9 C 7,2 C 6,7 C 86 % 1008,5 hPa 0,0 l/m 0 min 0 min 0 W/m 25,7 km/h (4 Bft) 97,87 %
29.11.2018 19:34 7,9 C 7,2 C 6,7 C 86 % 1008,5 hPa 0,0 l/m 0 min 0 min 0 W/m 29,0 km/h (5 Bft) 100,00 %
29.11.2018 19:36 7,9 C 7,2 C 6,7 C 86 % 1008,5 hPa 0,0 l/m 0 min 0 min 0 W/m 32,2 km/h (5 Bft) 100,00 %
29.11.2018 19:38 7,9 C 7,2 C 6,7 C 86 % 1008,5 hPa 0,0 l/m 0 min 0 min 0 W/m 19,3 km/h (3 Bft) 100,00 %
29.11.2018 19:40 7,9 C 7,2 C 6,7 C 86 % 1008,5 hPa 0,0 l/m 0 min 0 min 0 W/m 29,0 km/h (5 Bft) 100,00 %
29.11.2018 19:42 7,9 C 7,2 C 6,7 C 86 % 1008,5 hPa 0,0 l/m 0 min 0 min 0 W/m 25,7 km/h (4 Bft) 97,87 %
29.11.2018 19:44 7,9 C 7,2 C 6,7 C 86 % 1008,5 hPa 0,0 l/m 0 min 0 min 0 W/m 19,3 km/h (3 Bft) 100,00 %
29.11.2018 19:46 7,9 C 7,2 C 6,7 C 86 % 1008,5 hPa 0,0 l/m 0 min 0 min 0 W/m 22,5 km/h (4 Bft) 97,87 %
29.11.2018 19:48 7,9 C 7,2 C 6,7 C 86 % 1008,5 hPa 0,0 l/m 0 min 0 min 0 W/m 25,7 km/h (4 Bft) 100,00 %
29.11.2018 19:50 7,9 C 7,2 C 6,7 C 86 % 1008,3 hPa 0,0 l/m 0 min 0 min 0 W/m 19,3 km/h (3 Bft) 97,83 %
29.11.2018 19:52 7,9 C 7,2 C 6,7 C 86 % 1008,4 hPa 0,0 l/m 0 min 0 min 0 W/m 22,5 km/h (4 Bft) 98,00 %
29.11.2018 19:54 7,9 C 7,2 C 6,7 C 86 % 1008,4 hPa 0,0 l/m 0 min 0 min 0 W/m 22,5 km/h (4 Bft) 100,00 %
29.11.2018 19:56 7,9 C 7,2 C 6,7 C 86 % 1008,3 hPa 0,0 l/m 0 min 0 min 0 W/m 22,5 km/h (4 Bft) 100,00 %
29.11.2018 19:58 7,9 C 7,2 C 6,7 C 86 % 1008,3 hPa 0,0 l/m 0 min 0 min 0 W/m 29,0 km/h (5 Bft) 100,00 %
29.11.2018 20:00 7,9 C 7,2 C 6,7 C 86 % 1008,3 hPa 0,0 l/m 0 min 0 min 0 W/m 22,5 km/h (4 Bft) 100,00 %
29.11.2018 20:02 7,9 C 7,2 C 6,7 C 86 % 1008,3 hPa 0,0 l/m 0 min 0 min 0 W/m 29,0 km/h (5 Bft) 100,00 %
29.11.2018 20:04 7,8 C 7,2 C 6,7 C 86 % 1008,3 hPa 0,0 l/m 0 min 0 min 0 W/m 22,5 km/h (4 Bft) 100,00 %
29.11.2018 20:06 7,8 C 7,2 C 6,7 C 86 % 1008,3 hPa 0,0 l/m 0 min 0 min 0 W/m 16,1 km/h (3 Bft) 100,00 %
29.11.2018 20:08 7,8 C 7,2 C 6,1 C 86 % 1008,2 hPa 0,0 l/m 0 min 0 min 0 W/m 22,5 km/h (4 Bft) 98,00 %
29.11.2018 20:10 7,8 C 7,2 C 6,1 C 86 % 1008,2 hPa 0,0 l/m 0 min 0 min 0 W/m 19,3 km/h (3 Bft) 100,00 %
29.11.2018 20:12 7,8 C 7,2 C 6,1 C 86 % 1008,1 hPa 0,0 l/m 0 min 0 min 0 W/m 25,7 km/h (4 Bft) 100,00 %
29.11.2018 20:14 7,8 C 7,2 C 6,7 C 86 % 1008,1 hPa 0,0 l/m 0 min 0 min 0 W/m 25,7 km/h (4 Bft) 100,00 %
29.11.2018 20:16 7,8 C 7,2 C 6,1 C 86 % 1008,3 hPa 0,0 l/m 0 min 0 min 0 W/m 25,7 km/h (4 Bft) 100,00 %
29.11.2018 20:18 7,7 C 7,2 C 6,7 C 86 % 1008,4 hPa 0,0 l/m 0 min 0 min 0 W/m 19,3 km/h (3 Bft) 100,00 %
29.11.2018 20:20 7,7 C 7,2 C 6,7 C 86 % 1008,3 hPa 0,0 l/m 0 min 0 min 0 W/m 19,3 km/h (3 Bft) 97,87 %
29.11.2018 20:22 7,7 C 7,2 C 6,7 C 86 % 1008,3 hPa 0,0 l/m 0 min 0 min 0 W/m 22,5 km/h (4 Bft) 100,00 %
29.11.2018 20:24 7,7 C 7,2 C 6,7 C 86 % 1008,2 hPa 0,0 l/m 0 min 0 min 0 W/m 25,7 km/h (4 Bft) 95,74 %
29.11.2018 20:26 7,7 C 7,2 C 6,7 C 86 % 1008,1 hPa 0,0 l/m 0 min 0 min 0 W/m 29,0 km/h (5 Bft) 100,00 %
29.11.2018 20:28 7,8 C 7,2 C 6,7 C 86 % 1008,1 hPa 0,0 l/m 0 min 0 min 0 W/m 25,7 km/h (4 Bft) 100,00 %
29.11.2018 20:30 7,8 C 7,2 C 6,7 C 86 % 1008,1 hPa 0,0 l/m 0 min 0 min 0 W/m 19,3 km/h (3 Bft) 100,00 %
29.11.2018 20:32 7,8 C 7,2 C 6,7 C 86 % 1008,2 hPa 0,0 l/m 0 min 0 min 0 W/m 22,5 km/h (4 Bft) 100,00 %
29.11.2018 20:34 7,8 C 7,2 C 6,7 C 86 % 1008,0 hPa 0,0 l/m 0 min 0 min 0 W/m 16,1 km/h (3 Bft) 100,00 %
29.11.2018 20:36 7,8 C 7,2 C 6,7 C 86 % 1007,8 hPa 0,0 l/m 0 min 0 min 0 W/m 22,5 km/h (4 Bft) 100,00 %
29.11.2018 20:38 7,8 C 7,2 C 6,7 C 86 % 1007,9 hPa 0,0 l/m 0 min 0 min 0 W/m 19,3 km/h (3 Bft) 100,00 %
29.11.2018 20:40 7,8 C 7,2 C 6,7 C 86 % 1008,0 hPa 0,0 l/m 0 min 0 min 0 W/m 22,5 km/h (4 Bft) 100,00 %
29.11.2018 20:42 7,8 C 7,2 C 6,7 C 86 % 1008,3 hPa 0,0 l/m 0 min 0 min 0 W/m 16,1 km/h (3 Bft) 97,87 %
29.11.2018 20:44 7,8 C 7,2 C 6,7 C 86 % 1008,4 hPa 0,0 l/m 0 min 2 min 0 W/m 16,1 km/h (3 Bft) 100,00 %
29.11.2018 20:46 7,8 C 6,7 C 6,1 C 86 % 1008,4 hPa 0,0 l/m 0 min 2 min 0 W/m 16,1 km/h (3 Bft) 97,87 %
29.11.2018 20:48 7,9 C 6,7 C 6,1 C 86 % 1008,4 hPa 0,0 l/m 0 min 2 min 0 W/m 29,0 km/h (5 Bft) 100,00 %
29.11.2018 20:50 7,9 C 6,7 C 6,1 C 86 % 1008,4 hPa 0,0 l/m 0 min 0 min 0 W/m 25,7 km/h (4 Bft) 97,87 %
29.11.2018 20:52 7,9 C 6,7 C 6,1 C 86 % 1008,3 hPa 0,0 l/m 0 min 2 min 0 W/m 19,3 km/h (3 Bft) 100,00 %
29.11.2018 20:54 7,9 C 6,7 C 6,1 C 86 % 1008,3 hPa 0,0 l/m 0 min 0 min 0 W/m 19,3 km/h (3 Bft) 100,00 %
29.11.2018 20:56 7,9 C 6,7 C 6,1 C 86 % 1008,4 hPa 0,0 l/m 0 min 2 min 0 W/m 25,7 km/h (4 Bft) 97,87 %
29.11.2018 20:58 7,9 C 6,7 C 6,1 C 86 % 1008,4 hPa 0,0 l/m 0 min 0 min 0 W/m 19,3 km/h (3 Bft) 97,87 %
29.11.2018 21:00 7,8 C 6,7 C 6,1 C 86 % 1008,4 hPa 0,0 l/m 0 min 0 min 0 W/m 22,5 km/h (4 Bft) 95,74 %
29.11.2018 21:02 7,8 C 6,7 C 6,1 C 86 % 1008,4 hPa 0,0 l/m 0 min 0 min 0 W/m 22,5 km/h (4 Bft) 95,74 %
29.11.2018 21:04 7,8 C 6,7 C 6,1 C 86 % 1008,4 hPa 0,0 l/m 0 min 0 min 0 W/m 22,5 km/h (4 Bft) 94,29 %
29.11.2018 21:06 7,8 C 6,7 C 6,1 C 86 % 1008,3 hPa 0,0 l/m 0 min 0 min 0 W/m 32,2 km/h (5 Bft) 98,08 %
29.11.2018 21:08 7,8 C 7,2 C 6,1 C 86 % 1008,2 hPa 0,0 l/m 0 min 0 min 0 W/m 22,5 km/h (4 Bft) 93,88 %
29.11.2018 21:10 7,8 C 7,2 C 6,1 C 86 % 1008,2 hPa 0,0 l/m 0 min 0 min 0 W/m 25,7 km/h (4 Bft) 93,62 %
29.11.2018 21:12 7,8 C 7,2 C 6,7 C 86 % 1008,2 hPa 0,0 l/m 0 min 0 min 0 W/m 22,5 km/h (4 Bft) 93,48 %
29.11.2018 21:14 7,8 C 7,2 C 6,7 C 86 % 1008,2 hPa 0,0 l/m 0 min 0 min 0 W/m 19,3 km/h (3 Bft) 94,00 %
29.11.2018 21:16 7,8 C 7,2 C 6,1 C 86 % 1008,3 hPa 0,0 l/m 0 min 0 min 0 W/m 22,5 km/h (4 Bft) 91,49 %
29.11.2018 21:18 7,9 C 7,2 C 6,7 C 86 % 1008,3 hPa 0,0 l/m 0 min 0 min 0 W/m 38,6 km/h (5 Bft) 91,49 %
29.11.2018 21:20 7,9 C 7,2 C 6,7 C 86 % 1008,3 hPa 0,0 l/m 0 min 0 min 0 W/m 22,5 km/h (4 Bft) 93,62 %
29.11.2018 21:22 7,9 C 7,2 C 6,7 C 86 % 1008,4 hPa 0,0 l/m 0 min 0 min 0 W/m 22,5 km/h (4 Bft) 91,67 %
29.11.2018 21:24 7,9 C 7,2 C 6,7 C 86 % 1008,3 hPa 0,0 l/m 0 min 0 min 0 W/m 19,3 km/h (3 Bft) 89,36 %
29.11.2018 21:26 7,9 C 7,2 C 6,7 C 86 % 1008,3 hPa 0,0 l/m 0 min 0 min 0 W/m 12,9 km/h (3 Bft) 94,29 %
29.11.2018 21:28 7,9 C 7,2 C 6,7 C 86 % 1008,3 hPa 0,0 l/m 0 min 0 min 0 W/m 22,5 km/h (4 Bft) 92,59 %
29.11.2018 21:30 7,9 C 7,2 C 6,7 C 86 % 1008,2 hPa 0,0 l/m 0 min 0 min 0 W/m 22,5 km/h (4 Bft) 93,62 %
29.11.2018 21:32 7,9 C 7,2 C 6,7 C 86 % 1008,2 hPa 0,0 l/m 0 min 0 min 0 W/m 19,3 km/h (3 Bft) 91,49 %
29.11.2018 21:34 7,9 C 7,2 C 6,7 C 86 % 1008,2 hPa 0,0 l/m 0 min 0 min 0 W/m 19,3 km/h (3 Bft) 91,30 %
29.11.2018 21:36 7,9 C 7,2 C 6,7 C 86 % 1008,3 hPa 0,0 l/m 0 min 0 min 0 W/m 25,7 km/h (4 Bft) 93,62 %
29.11.2018 21:38 7,8 C 7,2 C 6,7 C 86 % 1008,2 hPa 0,0 l/m 0 min 0 min 0 W/m 16,1 km/h (3 Bft) 93,62 %
29.11.2018 21:40 7,8 C 7,2 C 6,7 C 86 % 1008,2 hPa 0,0 l/m 0 min 0 min 0 W/m 25,7 km/h (4 Bft) 93,62 %
29.11.2018 21:42 7,8 C 7,2 C 6,1 C 86 % 1008,2 hPa 0,0 l/m 0 min 0 min 0 W/m 12,9 km/h (3 Bft) 93,62 %
29.11.2018 21:44 7,8 C 7,2 C 6,7 C 86 % 1008,2 hPa 0,0 l/m 0 min 0 min 0 W/m 19,3 km/h (3 Bft) 94,00 %
29.11.2018 21:46 7,8 C 7,2 C 6,7 C 86 % 1008,2 hPa 0,0 l/m 0 min 0 min 0 W/m 22,5 km/h (4 Bft) 95,65 %
29.11.2018 21:48 7,8 C 7,2 C 6,7 C 86 % 1008,2 hPa 0,0 l/m 0 min 0 min 0 W/m 19,3 km/h (3 Bft) 91,49 %
29.11.2018 21:50 7,8 C 7,2 C 6,7 C 86 % 1008,1 hPa 0,0 l/m 0 min 0 min 0 W/m 12,9 km/h (3 Bft) 89,36 %
29.11.2018 21:52 7,8 C 7,2 C 6,1 C 86 % 1008,1 hPa 0,0 l/m 0 min 0 min 0 W/m 16,1 km/h (3 Bft) 91,49 %
29.11.2018 21:54 7,8 C 7,2 C 6,7 C 86 % 1008,1 hPa 0,0 l/m 0 min 0 min 0 W/m 19,3 km/h (3 Bft) 93,62 %
29.11.2018 21:56 7,8 C 7,2 C 6,7 C 86 % 1008,0 hPa 0,0 l/m 0 min 0 min 0 W/m 16,1 km/h (3 Bft) 100,00 %
29.11.2018 21:58 7,8 C 7,2 C 6,7 C 86 % 1007,8 hPa 0,0 l/m 0 min 0 min 0 W/m 16,1 km/h (3 Bft) 100,00 %
29.11.2018 22:00 7,8 C 7,2 C 6,7 C 86 % 1007,8 hPa 0,0 l/m 0 min 0 min 0 W/m 19,3 km/h (3 Bft) 100,00 %
29.11.2018 22:02 7,8 C 7,2 C 6,1 C 86 % 1007,8 hPa 0,0 l/m 0 min 0 min 0 W/m 25,7 km/h (4 Bft) 97,83 %
29.11.2018 22:04 7,8 C 7,2 C 6,7 C 86 % 1007,9 hPa 0,0 l/m 0 min 0 min 0 W/m 19,3 km/h (3 Bft) 95,74 %
29.11.2018 22:06 7,8 C 7,2 C 6,1 C 86 % 1008,1 hPa 0,0 l/m 0 min 0 min 0 W/m 19,3 km/h (3 Bft) 100,00 %
29.11.2018 22:08 7,8 C 7,2 C 6,1 C 86 % 1008,3 hPa 0,0 l/m 0 min 0 min 0 W/m 19,3 km/h (3 Bft) 100,00 %
29.11.2018 22:10 7,7 C 7,2 C 6,1 C 86 % 1008,3 hPa 0,0 l/m 0 min 0 min 0 W/m 12,9 km/h (3 Bft) 100,00 %
29.11.2018 22:12 7,8 C 7,2 C 6,1 C 87 % 1008,3 hPa 0,0 l/m 0 min 0 min 0 W/m 12,9 km/h (3 Bft) 100,00 %
29.11.2018 22:14 7,7 C 7,2 C 6,7 C 87 % 1008,3 hPa 0,0 l/m 0 min 0 min 0 W/m 19,3 km/h (3 Bft) 97,87 %
29.11.2018 22:16 7,7 C 7,2 C 6,7 C 87 % 1008,3 hPa 0,0 l/m 0 min 0 min 0 W/m 16,1 km/h (3 Bft) 97,83 %
29.11.2018 22:18 7,7 C 7,2 C 6,7 C 87 % 1008,2 hPa 0,0 l/m 0 min 0 min 0 W/m 25,7 km/h (4 Bft) 100,00 %
29.11.2018 22:20 7,8 C 7,2 C 6,7 C 87 % 1008,2 hPa 0,0 l/m 0 min 0 min 0 W/m 22,5 km/h (4 Bft) 97,87 %
29.11.2018 22:22 7,8 C 7,2 C 6,7 C 87 % 1008,2 hPa 0,0 l/m 0 min 0 min 0 W/m 22,5 km/h (4 Bft) 100,00 %
29.11.2018 22:24 7,7 C 7,2 C 6,7 C 87 % 1008,2 hPa 0,0 l/m 0 min 0 min 0 W/m 22,5 km/h (4 Bft) 100,00 %
29.11.2018 22:26 7,7 C 7,2 C 6,7 C 87 % 1008,2 hPa 0,0 l/m 0 min 0 min 0 W/m 22,5 km/h (4 Bft) 100,00 %
29.11.2018 22:28 7,7 C 7,2 C 6,7 C 87 % 1008,3 hPa 0,0 l/m 0 min 0 min 0 W/m 16,1 km/h (3 Bft) 100,00 %
29.11.2018 22:30 7,7 C 7,2 C 6,7 C 87 % 1008,2 hPa 0,0 l/m 0 min 0 min 0 W/m 29,0 km/h (5 Bft) 100,00 %
29.11.2018 22:32 7,7 C 7,2 C 6,7 C 87 % 1008,2 hPa 0,0 l/m 0 min 0 min 0 W/m 22,5 km/h (4 Bft) 100,00 %
29.11.2018 22:34 7,7 C 7,2 C 6,7 C 87 % 1008,3 hPa 0,0 l/m 0 min 0 min 0 W/m 16,1 km/h (3 Bft) 100,00 %
29.11.2018 22:36 7,7 C 7,2 C 6,7 C 87 % 1008,3 hPa 0,0 l/m 0 min 0 min 0 W/m 22,5 km/h (4 Bft) 100,00 %
29.11.2018 22:38 7,7 C 7,2 C 6,7 C 87 % 1008,4 hPa 0,0 l/m 0 min 0 min 0 W/m 12,9 km/h (3 Bft) 100,00 %
29.11.2018 22:40 7,7 C 7,2 C 6,7 C 87 % 1008,3 hPa 0,0 l/m 0 min 0 min 0 W/m 22,5 km/h (4 Bft) 97,87 %
29.11.2018 22:42 7,7 C 7,2 C 6,7 C 87 % 1008,3 hPa 0,0 l/m 0 min 0 min 0 W/m 12,9 km/h (3 Bft) 100,00 %
29.11.2018 22:44 7,7 C 7,2 C 6,7 C 87 % 1008,3 hPa 0,0 l/m 0 min 0 min 0 W/m 25,7 km/h (4 Bft) 100,00 %
29.11.2018 22:46 7,7 C 7,2 C 6,7 C 87 % 1008,3 hPa 0,0 l/m 0 min 0 min 0 W/m 25,7 km/h (4 Bft) 100,00 %
29.11.2018 22:48 7,7 C 7,2 C 6,7 C 87 % 1008,3 hPa 0,0 l/m 0 min 0 min 0 W/m 25,7 km/h (4 Bft) 100,00 %
29.11.2018 22:50 7,7 C 7,2 C 6,7 C 87 % 1008,3 hPa 0,0 l/m 0 min 0 min 0 W/m 25,7 km/h (4 Bft) 100,00 %
29.11.2018 22:52 7,7 C 7,2 C 6,7 C 87 % 1008,3 hPa 0,0 l/m 0 min 0 min 0 W/m 19,3 km/h (3 Bft) 100,00 %
29.11.2018 22:54 7,7 C 7,2 C 6,7 C 87 % 1008,4 hPa 0,0 l/m 0 min 0 min 0 W/m 19,3 km/h (3 Bft) 100,00 %
29.11.2018 22:56 7,7 C 7,2 C 6,7 C 87 % 1008,4 hPa 0,0 l/m 0 min 0 min 0 W/m 29,0 km/h (5 Bft) 100,00 %
29.11.2018 22:58 7,7 C 7,2 C 6,7 C 87 % 1008,4 hPa 0,0 l/m 0 min 0 min 0 W/m 16,1 km/h (3 Bft) 100,00 %
29.11.2018 23:00 7,7 C 7,2 C 6,7 C 87 % 1008,3 hPa 0,0 l/m 0 min 0 min 0 W/m 22,5 km/h (4 Bft) 100,00 %
29.11.2018 23:02 7,7 C 7,2 C 6,7 C 87 % 1008,4 hPa 0,0 l/m 0 min 0 min 0 W/m 19,3 km/h (3 Bft) 100,00 %
29.11.2018 23:04 7,7 C 7,2 C 6,7 C 87 % 1008,3 hPa 0,0 l/m 0 min 0 min 0 W/m 22,5 km/h (4 Bft) 100,00 %
29.11.2018 23:06 7,7 C 7,2 C 6,7 C 87 % 1008,2 hPa 0,0 l/m 0 min 0 min 0 W/m 22,5 km/h (4 Bft) 97,87 %
29.11.2018 23:08 7,7 C 7,2 C 6,7 C 87 % 1008,2 hPa 0,0 l/m 0 min 0 min 0 W/m 12,9 km/h (3 Bft) 100,00 %
29.11.2018 23:10 7,7 C 7,2 C 6,7 C 87 % 1008,3 hPa 0,0 l/m 0 min 0 min 0 W/m 22,5 km/h (4 Bft) 100,00 %
29.11.2018 23:12 7,7 C 7,2 C 6,7 C 87 % 1008,3 hPa 0,0 l/m 0 min 0 min 0 W/m 16,1 km/h (3 Bft) 100,00 %
29.11.2018 23:14 7,7 C 7,2 C 6,7 C 87 % 1008,3 hPa 0,0 l/m 0 min 0 min 0 W/m 22,5 km/h (4 Bft) 100,00 %
29.11.2018 23:16 7,7 C 7,2 C 6,7 C 87 % 1008,3 hPa 0,0 l/m 0 min 0 min 0 W/m 12,9 km/h (3 Bft) 100,00 %
29.11.2018 23:18 7,7 C 7,2 C 6,7 C 87 % 1008,3 hPa 0,0 l/m 0 min 0 min 0 W/m 16,1 km/h (3 Bft) 100,00 %
29.11.2018 23:20 7,7 C 7,2 C 6,7 C 87 % 1008,3 hPa 0,0 l/m 0 min 0 min 0 W/m 12,9 km/h (3 Bft) 100,00 %
29.11.2018 23:22 7,7 C 7,2 C 6,7 C 87 % 1008,2 hPa 0,0 l/m 0 min 0 min 0 W/m 16,1 km/h (3 Bft) 100,00 %
29.11.2018 23:24 7,8 C 7,2 C 6,7 C 87 % 1008,2 hPa 0,0 l/m 0 min 0 min 0 W/m 16,1 km/h (3 Bft) 100,00 %
29.11.2018 23:26 7,8 C 7,2 C 6,7 C 87 % 1008,3 hPa 0,0 l/m 0 min 0 min 0 W/m 12,9 km/h (3 Bft) 100,00 %
29.11.2018 23:28 7,8 C 7,2 C 6,7 C 87 % 1008,2 hPa 0,0 l/m 0 min 0 min 0 W/m 12,9 km/h (3 Bft) 100,00 %
29.11.2018 23:30 7,8 C 7,2 C 6,7 C 87 % 1008,2 hPa 0,0 l/m 0 min 0 min 0 W/m 16,1 km/h (3 Bft) 92,86 %
29.11.2018 23:32 7,8 C 7,2 C 6,7 C 87 % 1008,2 hPa 0,0 l/m 0 min 0 min 0 W/m 16,1 km/h (3 Bft) 100,00 %
29.11.2018 23:34 7,8 C 7,2 C 6,7 C 87 % 1008,2 hPa 0,0 l/m 0 min 0 min 0 W/m 19,3 km/h (3 Bft) 100,00 %
29.11.2018 23:36 7,8 C 7,2 C 6,7 C 87 % 1008,1 hPa 0,0 l/m 0 min 0 min 0 W/m 12,9 km/h (3 Bft) 97,87 %
29.11.2018 23:38 7,8 C 7,2 C 6,7 C 87 % 1008,1 hPa 0,0 l/m 0 min 0 min 0 W/m 22,5 km/h (4 Bft) 95,74 %
29.11.2018 23:40 7,8 C 7,2 C 6,7 C 87 % 1008,1 hPa 0,0 l/m 0 min 0 min 0 W/m 16,1 km/h (3 Bft) 100,00 %
29.11.2018 23:42 7,8 C 7,2 C 6,7 C 87 % 1008,1 hPa 0,0 l/m 0 min 0 min 0 W/m 19,3 km/h (3 Bft) 97,87 %
29.11.2018 23:44 7,8 C 7,2 C 6,7 C 87 % 1008,1 hPa 0,0 l/m 0 min 0 min 0 W/m 16,1 km/h (3 Bft) 97,83 %
29.11.2018 23:46 7,9 C 7,2 C 6,7 C 87 % 1008,1 hPa 0,0 l/m 0 min 0 min 0 W/m 22,5 km/h (4 Bft) 95,74 %
29.11.2018 23:48 7,9 C 7,2 C 6,7 C 87 % 1008,1 hPa 0,0 l/m 0 min 0 min 0 W/m 12,9 km/h (3 Bft) 96,00 %
29.11.2018 23:50 7,9 C 7,2 C 6,7 C 87 % 1008,1 hPa 0,0 l/m 0 min 0 min 0 W/m 12,9 km/h (3 Bft) 95,74 %
29.11.2018 23:52 7,9 C 7,2 C 6,7 C 87 % 1008,1 hPa 0,0 l/m 0 min 0 min 0 W/m 16,1 km/h (3 Bft) 97,87 %
29.11.2018 23:54 7,9 C 7,2 C 6,7 C 87 % 1008,1 hPa 0,0 l/m 0 min 0 min 0 W/m 19,3 km/h (3 Bft) 100,00 %
29.11.2018 23:56 7,9 C 7,2 C 6,7 C 87 % 1008,1 hPa 0,0 l/m 0 min 0 min 0 W/m 12,9 km/h (3 Bft) 93,75 %
29.11.2018 23:58 7,9 C 7,2 C 6,7 C 87 % 1008,0 hPa 0,0 l/m 0 min 0 min 0 W/m 16,1 km/h (3 Bft) 95,65 %
_ Min-Zeit 00:00 12:14 12:38 18:56 15:06 - - - - 21:26 06:30
Minimum _ 6,6 C 5,6 C 5,0 C 86 % 1007,3 hPa - - - - 12,9 km/h (3 Bft) 74,47 %
_ Max-Zeit 17:22 02:10 02:52 12:44 00:00 06:12 00:00 06:08 10:22 12:40 00:16
Maximum _ 7,9 C 7,2 C 6,7 C 95 % 1014,8 hPa 0,2 l/m 0 min 4 min 69 W/m 57,9 km/h
O-SO (7 Bft)
100,00 %
Durchschnitt _ 7,4 C 6,8 C 6,1 C 91 % 1010,8 hPa #1,0 l/m #0 min. #3:36 h 32 W/m 29,0 km/h (5 Bft) 96,88 %
© 2018 W. Hausmann